| time (UTC) | temp F | wind direction | speed MPH | gust MPH | rain 1hr in | rain 24hr in | rain mn in | humidity % | barometer mb |
| 20260507230403 | 62 | 236 | 0.0 | 3.0 | 0.00 | 0.08 | 0.01 | 59 | 1012.4 |
| 20260507230303 | 62 | 237 | 0.0 | 3.0 | 0.00 | 0.08 | 0.01 | 59 | 1012.4 |
| 20260507230204 | 62 | 231 | 0.0 | 3.0 | 0.00 | 0.08 | 0.01 | 53 | 1012.4 |
| 20260507230005 | 63 | 255 | 0.0 | 3.0 | 0.00 | 0.08 | 0.01 | 55 | 1012.5 |
| 20260507225903 | 63 | 259 | 0.0 | 3.0 | 0.00 | 0.08 | 0.01 | 55 | 1012.5 |
| 20260507225803 | 63 | 264 | 0.0 | 3.0 | 0.00 | 0.08 | 0.01 | 54 | 1012.5 |
| 20260507225704 | 63 | 273 | 0.0 | 3.0 | 0.00 | 0.08 | 0.01 | 52 | 1012.5 |
| 20260507225604 | 63 | 274 | 0.0 | 3.0 | 0.00 | 0.08 | 0.01 | 53 | 1012.5 |
| 20260507225503 | 63 | 281 | 0.0 | 3.0 | 0.00 | 0.08 | 0.01 | 53 | 1012.5 |
| 20260507225404 | 63 | 282 | 0.0 | 3.0 | 0.00 | 0.08 | 0.01 | 52 | 1012.5 |
| 20260507225306 | 63 | 286 | 0.0 | 3.0 | 0.00 | 0.08 | 0.01 | 50 | 1012.6 |
| 20260507225203 | 63 | 308 | 0.0 | 3.0 | 0.00 | 0.08 | 0.01 | 54 | 1012.6 |
| 20260507225103 | 63 | 290 | 0.0 | 3.0 | 0.00 | 0.08 | 0.01 | 52 | 1012.6 |
| 20260507225003 | 63 | 284 | 0.0 | 3.0 | 0.00 | 0.08 | 0.01 | 49 | 1012.6 |
| 20260507224903 | 63 | 283 | 0.0 | 3.0 | 0.00 | 0.08 | 0.01 | 50 | 1012.6 |
| 20260507224803 | 63 | 283 | 1.0 | 4.0 | 0.00 | 0.08 | 0.01 | 52 | 1012.5 |
| 20260507224705 | 63 | 287 | 1.0 | 4.0 | 0.00 | 0.08 | 0.01 | 52 | 1012.6 |
| 20260507224603 | 63 | 292 | 1.0 | 4.0 | 0.00 | 0.08 | 0.01 | 54 | 1012.6 |
| 20260507224504 | 63 | 297 | 1.0 | 4.0 | 0.00 | 0.08 | 0.01 | 51 | 1012.5 |
| 20260507224404 | 63 | 295 | 1.0 | 4.0 | 0.00 | 0.08 | 0.01 | 51 | 1012.5 |
| 20260507224204 | 63 | 285 | 1.0 | 4.0 | 0.00 | 0.08 | 0.01 | 54 | 1012.5 |
| 20260507224118 | 63 | 288 | 1.0 | 4.0 | 0.00 | 0.08 | 0.01 | 52 | 1012.5 |
| 20260507224103 | 63 | 287 | 1.0 | 4.0 | 0.00 | 0.08 | 0.01 | 51 | 1012.5 |
| 20260507224004 | 63 | 291 | 1.0 | 4.0 | 0.00 | 0.08 | 0.01 | 50 | 1012.6 |
| 20260507223803 | 64 | 295 | 1.0 | 3.0 | 0.00 | 0.08 | 0.01 | 54 | 1012.6 |
| 20260507223716 | 64 | 293 | 1.0 | 3.0 | 0.00 | 0.08 | 0.01 | 56 | 1012.6 |
| 20260507223703 | 64 | 292 | 1.0 | 3.0 | 0.00 | 0.08 | 0.01 | 56 | 1012.6 |
| 20260507223603 | 63 | 290 | 1.0 | 3.0 | 0.00 | 0.08 | 0.01 | 52 | 1012.6 |
| 20260507223404 | 64 | 299 | 1.0 | 4.0 | 0.00 | 0.08 | 0.01 | 54 | 1012.7 |
| 20260507223303 | 64 | 304 | 1.0 | 4.0 | 0.00 | 0.08 | 0.01 | 52 | 1012.7 |
| 20260507223203 | 64 | 309 | 1.0 | 4.0 | 0.00 | 0.08 | 0.01 | 52 | 1012.7 |
| 20260507223118 | 64 | 311 | 1.0 | 4.0 | 0.00 | 0.08 | 0.01 | 52 | 1012.7 |
| 20260507223104 | 64 | 312 | 1.0 | 4.0 | 0.00 | 0.08 | 0.01 | 52 | 1012.7 |
| 20260507223018 | 64 | 311 | 1.0 | 4.0 | 0.00 | 0.08 | 0.01 | 52 | 1012.7 |
| 20260507223004 | 64 | 310 | 1.0 | 4.0 | 0.00 | 0.08 | 0.01 | 52 | 1012.7 |
| 20260507222703 | 64 | 309 | 1.0 | 4.0 | 0.00 | 0.08 | 0.01 | 47 | 1012.7 |
| 20260507222603 | 64 | 308 | 1.0 | 4.0 | 0.00 | 0.08 | 0.01 | 47 | 1012.7 |
| 20260507222503 | 64 | 307 | 1.0 | 4.0 | 0.00 | 0.08 | 0.01 | 46 | 1012.7 |
| 20260507222403 | 64 | 302 | 1.0 | 4.0 | 0.00 | 0.08 | 0.01 | 50 | 1012.7 |
| 20260507222317 | 64 | 301 | 1.0 | 4.0 | 0.00 | 0.08 | 0.01 | 49 | 1012.7 |
| 20260507222306 | 64 | 303 | 1.0 | 4.0 | 0.00 | 0.08 | 0.01 | 50 | 1012.7 |
| 20260507222204 | 64 | 302 | 1.0 | 4.0 | 0.00 | 0.08 | 0.01 | 53 | 1012.7 |
| 20260507222019 | 64 | 303 | 1.0 | 4.0 | 0.00 | 0.08 | 0.01 | 48 | 1012.7 |
| 20260507222003 | 64 | 301 | 1.0 | 4.0 | 0.00 | 0.08 | 0.01 | 48 | 1012.7 |
| 20260507221903 | 64 | 295 | 1.0 | 4.0 | 0.00 | 0.08 | 0.01 | 50 | 1012.8 |
| 20260507221703 | 64 | 295 | 1.0 | 4.0 | 0.00 | 0.08 | 0.01 | 50 | 1012.8 |
| 20260507221603 | 64 | 295 | 1.0 | 4.0 | 0.00 | 0.08 | 0.01 | 53 | 1012.8 |
| 20260507221503 | 64 | 296 | 1.0 | 4.0 | 0.00 | 0.08 | 0.01 | 49 | 1012.8 |
| 20260507221404 | 64 | 296 | 1.0 | 4.0 | 0.00 | 0.08 | 0.01 | 48 | 1012.8 |
| 20260507221303 | 64 | 297 | 1.0 | 4.0 | 0.00 | 0.08 | 0.01 | 51 | 1012.8 |
| 20260507221217 | 64 | 297 | 1.0 | 4.0 | 0.00 | 0.08 | 0.01 | 48 | 1012.8 |
| 20260507221103 | 64 | 289 | 1.0 | 4.0 | 0.00 | 0.08 | 0.01 | 50 | 1012.8 |
| 20260507220903 | 64 | 293 | 1.0 | 3.0 | 0.00 | 0.08 | 0.01 | 49 | 1012.7 |
| 20260507220804 | 64 | 305 | 1.0 | 6.0 | 0.00 | 0.08 | 0.01 | 49 | 1012.8 |
| 20260507220704 | 64 | 313 | 1.0 | 6.0 | 0.00 | 0.08 | 0.01 | 49 | 1012.8 |
| 20260507220617 | 64 | 315 | 1.0 | 6.0 | 0.00 | 0.08 | 0.01 | 48 | 1012.8 |
| 20260507220604 | 64 | 317 | 1.0 | 6.0 | 0.00 | 0.08 | 0.01 | 48 | 1012.8 |
| 20260507220503 | 65 | 322 | 1.0 | 6.0 | 0.00 | 0.08 | 0.01 | 48 | 1012.8 |
| 20260507220303 | 65 | 304 | 1.0 | 6.0 | 0.00 | 0.08 | 0.01 | 52 | 1012.8 |
| 20260507220203 | 65 | 303 | 1.0 | 6.0 | 0.00 | 0.08 | 0.01 | 51 | 1012.8 |
| 20260507220003 | 65 | 293 | 1.0 | 6.0 | 0.00 | 0.08 | 0.01 | 48 | 1012.8 |
| 20260507215903 | 65 | 293 | 1.0 | 6.0 | 0.00 | 0.08 | 0.01 | 48 | 1012.8 |
| 20260507215804 | 65 | 280 | 1.0 | 5.0 | 0.00 | 0.08 | 0.01 | 50 | 1012.8 |
| 20260507215704 | 65 | 262 | 1.0 | 3.0 | 0.00 | 0.08 | 0.01 | 47 | 1012.8 |
| 20260507215603 | 65 | 213 | 1.0 | 4.0 | 0.00 | 0.08 | 0.01 | 51 | 1012.8 |
| 20260507215503 | 64 | 196 | 1.0 | 4.0 | 0.00 | 0.08 | 0.01 | 49 | 1012.7 |
| 20260507215404 | 64 | 197 | 1.0 | 7.0 | 0.00 | 0.08 | 0.01 | 50 | 1012.7 |
| 20260507215306 | 64 | 200 | 1.0 | 7.0 | 0.00 | 0.08 | 0.01 | 51 | 1012.7 |
| 20260507215203 | 64 | 199 | 1.0 | 7.0 | 0.00 | 0.08 | 0.01 | 47 | 1012.7 |
| 20260507215118 | 64 | 208 | 1.0 | 7.0 | 0.00 | 0.08 | 0.01 | 49 | 1012.7 |
| 20260507215103 | 64 | 211 | 1.0 | 7.0 | 0.00 | 0.08 | 0.01 | 49 | 1012.7 |
| 20260507215018 | 64 | 218 | 1.0 | 7.0 | 0.00 | 0.08 | 0.01 | 53 | 1012.7 |
| 20260507215003 | 64 | 221 | 1.0 | 7.0 | 0.00 | 0.08 | 0.01 | 53 | 1012.6 |
| 20260507214703 | 65 | 232 | 1.0 | 7.0 | 0.00 | 0.08 | 0.01 | 48 | 1012.7 |
| 20260507214603 | 65 | 223 | 1.0 | 7.0 | 0.00 | 0.08 | 0.01 | 46 | 1012.7 |
| 20260507214504 | 65 | 204 | 1.0 | 7.0 | 0.00 | 0.08 | 0.01 | 48 | 1012.6 |
| 20260507214404 | 65 | 186 | 1.0 | 6.0 | 0.00 | 0.08 | 0.01 | 49 | 1012.6 |
| 20260507214317 | 65 | 175 | 1.0 | 6.0 | 0.00 | 0.08 | 0.01 | 49 | 1012.6 |
| 20260507214304 | 65 | 173 | 1.0 | 6.0 | 0.00 | 0.08 | 0.01 | 49 | 1012.6 |
| 20260507214219 | 65 | 168 | 1.0 | 6.0 | 0.00 | 0.08 | 0.01 | 51 | 1012.6 |
| 20260507214203 | 65 | 166 | 1.0 | 6.0 | 0.00 | 0.08 | 0.01 | 52 | 1012.6 |
| 20260507214018 | 65 | 159 | 2.0 | 6.0 | 0.00 | 0.08 | 0.01 | 47 | 1012.5 |
| 20260507213917 | 65 | 161 | 2.0 | 6.0 | 0.00 | 0.08 | 0.01 | 50 | 1012.5 |
| 20260507213904 | 65 | 163 | 2.0 | 6.0 | 0.00 | 0.08 | 0.01 | 50 | 1012.5 |
| 20260507213603 | 65 | 173 | 1.0 | 4.0 | 0.00 | 0.08 | 0.01 | 52 | 1012.5 |
| 20260507213504 | 65 | 180 | 1.0 | 4.0 | 0.00 | 0.08 | 0.01 | 50 | 1012.5 |
| 20260507213403 | 65 | 195 | 1.0 | 4.0 | 0.00 | 0.08 | 0.01 | 51 | 1012.5 |
| 20260507213303 | 65 | 210 | 1.0 | 4.0 | 0.00 | 0.08 | 0.01 | 54 | 1012.5 |
| 20260507213203 | 65 | 234 | 1.0 | 4.0 | 0.00 | 0.08 | 0.01 | 49 | 1012.5 |
| 20260507213103 | 65 | 264 | 1.0 | 4.0 | 0.00 | 0.08 | 0.01 | 52 | 1012.5 |
| 20260507213003 | 65 | 283 | 1.0 | 4.0 | 0.00 | 0.08 | 0.01 | 48 | 1012.5 |
| 20260507212905 | 65 | 318 | 1.0 | 5.0 | 0.00 | 0.08 | 0.01 | 48 | 1012.5 |
| 20260507212804 | 65 | 328 | 1.0 | 5.0 | 0.00 | 0.08 | 0.01 | 47 | 1012.6 |
| 20260507212703 | 65 | 348 | 1.0 | 5.0 | 0.00 | 0.08 | 0.01 | 50 | 1012.5 |
| 20260507212604 | 66 | 2 | 2.0 | 5.0 | 0.00 | 0.08 | 0.01 | 48 | 1012.5 |
| 20260507212503 | 66 | 9 | 2.0 | 5.0 | 0.00 | 0.08 | 0.01 | 48 | 1012.4 |
| 20260507212403 | 66 | 10 | 2.0 | 5.0 | 0.00 | 0.08 | 0.01 | 52 | 1012.4 |
| 20260507212306 | 66 | 14 | 2.0 | 5.0 | 0.00 | 0.08 | 0.01 | 54 | 1012.4 |
| 20260507212203 | 65 | 13 | 2.0 | 5.0 | 0.00 | 0.08 | 0.01 | 53 | 1012.4 |
| 20260507212104 | 65 | 19 | 2.0 | 5.0 | 0.00 | 0.08 | 0.01 | 52 | 1012.4 |
| 20260507212004 | 65 | 18 | 1.0 | 5.0 | 0.00 | 0.08 | 0.01 | 50 | 1012.4 |
| 20260507211904 | 65 | 15 | 1.0 | 4.0 | 0.00 | 0.08 | 0.01 | 52 | 1012.4 |
| 20260507211803 | 66 | 315 | 1.0 | 4.0 | 0.00 | 0.08 | 0.01 | 48 | 1012.4 |
| 20260507211703 | 66 | 298 | 1.0 | 4.0 | 0.00 | 0.08 | 0.01 | 48 | 1012.5 |
| 20260507211604 | 66 | 287 | 1.0 | 4.0 | 0.00 | 0.08 | 0.01 | 53 | 1012.5 |
| 20260507211517 | 66 | 295 | 1.0 | 4.0 | 0.00 | 0.08 | 0.01 | 50 | 1012.4 |
| 20260507211503 | 66 | 296 | 1.0 | 4.0 | 0.00 | 0.08 | 0.01 | 50 | 1012.4 |
| 20260507211404 | 66 | 286 | 1.0 | 4.0 | 0.00 | 0.08 | 0.01 | 53 | 1012.4 |
| 20260507211219 | 65 | 276 | 1.0 | 3.0 | 0.00 | 0.09 | 0.01 | 57 | 1012.3 |
| 20260507211203 | 65 | 277 | 1.0 | 3.0 | 0.00 | 0.09 | 0.01 | 57 | 1012.3 |
| 20260507211118 | 65 | 279 | 1.0 | 3.0 | 0.00 | 0.09 | 0.01 | 51 | 1012.3 |
| 20260507211103 | 65 | 280 | 1.0 | 3.0 | 0.00 | 0.09 | 0.01 | 51 | 1012.3 |
| 20260507210803 | 66 | 296 | 1.0 | 5.0 | 0.00 | 0.09 | 0.01 | 50 | 1012.4 |
| 20260507210704 | 66 | 286 | 1.0 | 5.0 | 0.00 | 0.09 | 0.01 | 46 | 1012.4 |
| 20260507210603 | 66 | 279 | 1.0 | 5.0 | 0.00 | 0.09 | 0.01 | 46 | 1012.4 |
| 20260507210503 | 66 | 276 | 2.0 | 5.0 | 0.00 | 0.09 | 0.01 | 47 | 1012.4 |
| 20260507210403 | 66 | 285 | 2.0 | 5.0 | 0.00 | 0.09 | 0.01 | 47 | 1012.4 |
| 20260507210303 | 66 | 290 | 2.0 | 5.0 | 0.00 | 0.09 | 0.01 | 46 | 1012.4 |
| 20260507210203 | 66 | 294 | 2.0 | 5.0 | 0.00 | 0.09 | 0.01 | 50 | 1012.4 |
| 20260507210117 | 66 | 295 | 2.0 | 5.0 | 0.00 | 0.09 | 0.01 | 46 | 1012.4 |
| 20260507210103 | 66 | 295 | 2.0 | 5.0 | 0.00 | 0.09 | 0.01 | 49 | 1012.4 |
| 20260507205803 | 66 | 305 | 1.0 | 5.0 | 0.00 | 0.09 | 0.01 | 46 | 1012.4 |
| 20260507205704 | 66 | 318 | 1.0 | 5.0 | 0.00 | 0.09 | 0.01 | 47 | 1012.4 |
| 20260507205616 | 66 | 334 | 1.0 | 5.0 | 0.00 | 0.09 | 0.01 | 46 | 1012.4 |
| 20260507205604 | 66 | 338 | 1.0 | 5.0 | 0.00 | 0.09 | 0.01 | 46 | 1012.4 |
| 20260507205503 | 66 | 345 | 1.0 | 5.0 | 0.00 | 0.09 | 0.01 | 48 | 1012.4 |
| 20260507205306 | 66 | 3 | 1.0 | 4.0 | 0.00 | 0.09 | 0.01 | 49 | 1012.4 |
| 20260507205204 | 66 | 9 | 2.0 | 4.0 | 0.00 | 0.09 | 0.01 | 48 | 1012.4 |
| 20260507205103 | 66 | 13 | 2.0 | 5.0 | 0.00 | 0.09 | 0.01 | 49 | 1012.4 |
| 20260507205018 | 66 | 15 | 2.0 | 5.0 | 0.00 | 0.09 | 0.01 | 48 | 1012.4 |
| 20260507205003 | 66 | 15 | 2.0 | 5.0 | 0.00 | 0.09 | 0.01 | 50 | 1012.4 |
| 20260507204917 | 66 | 15 | 2.0 | 5.0 | 0.00 | 0.09 | 0.01 | 50 | 1012.4 |
| 20260507204904 | 66 | 16 | 2.0 | 5.0 | 0.00 | 0.09 | 0.01 | 52 | 1012.4 |
| 20260507204718 | 65 | 16 | 2.0 | 5.0 | 0.00 | 0.09 | 0.01 | 49 | 1012.4 |
| 20260507204603 | 65 | 18 | 2.0 | 5.0 | 0.00 | 0.09 | 0.01 | 53 | 1012.4 |
| 20260507204517 | 65 | 20 | 2.0 | 5.0 | 0.00 | 0.09 | 0.01 | 51 | 1012.4 |
| 20260507204404 | 66 | 34 | 2.0 | 5.0 | 0.00 | 0.09 | 0.01 | 47 | 1012.4 |
| 20260507204318 | 66 | 29 | 2.0 | 5.0 | 0.00 | 0.09 | 0.01 | 47 | 1012.4 |
| 20260507204203 | 66 | 112 | 2.0 | 6.0 | 0.00 | 0.09 | 0.01 | 50 | 1012.4 |
| 20260507204004 | 66 | 187 | 2.0 | 6.0 | 0.00 | 0.09 | 0.01 | 48 | 1012.4 |
| 20260507203904 | 66 | 200 | 2.0 | 6.0 | 0.00 | 0.09 | 0.01 | 50 | 1012.5 |
| 20260507203817 | 66 | 221 | 2.0 | 7.0 | 0.00 | 0.09 | 0.01 | 48 | 1012.5 |
| 20260507203803 | 66 | 226 | 2.0 | 7.0 | 0.00 | 0.09 | 0.01 | 48 | 1012.4 |
| 20260507203703 | 66 | 231 | 2.0 | 7.0 | 0.00 | 0.09 | 0.01 | 47 | 1012.4 |
| 20260507203504 | 66 | 246 | 2.0 | 7.0 | 0.00 | 0.10 | 0.01 | 46 | 1012.5 |
| 20260507203404 | 66 | 267 | 2.0 | 7.0 | 0.00 | 0.10 | 0.01 | 49 | 1012.5 |
| 20260507203303 | 66 | 275 | 2.0 | 7.0 | 0.00 | 0.10 | 0.01 | 50 | 1012.5 |
| 20260507203219 | 66 | 296 | 2.0 | 7.0 | 0.00 | 0.10 | 0.01 | 48 | 1012.5 |
| 20260507203203 | 66 | 302 | 2.0 | 7.0 | 0.00 | 0.10 | 0.01 | 49 | 1012.5 |
| 20260507203103 | 66 | 314 | 2.0 | 7.0 | 0.00 | 0.10 | 0.01 | 48 | 1012.5 |
| 20260507202903 | 66 | 315 | 2.0 | 7.0 | 0.00 | 0.11 | 0.01 | 49 | 1012.4 |
| 20260507202804 | 66 | 311 | 2.0 | 7.0 | 0.00 | 0.11 | 0.01 | 51 | 1012.4 |
| 20260507202703 | 66 | 303 | 2.0 | 7.0 | 0.00 | 0.11 | 0.01 | 47 | 1012.4 |
| 20260507202603 | 67 | 318 | 1.0 | 7.0 | 0.00 | 0.11 | 0.01 | 49 | 1012.5 |
| 20260507202503 | 67 | 328 | 1.0 | 7.0 | 0.00 | 0.11 | 0.01 | 54 | 1012.5 |
| 20260507202403 | 67 | 345 | 1.0 | 3.0 | 0.00 | 0.11 | 0.01 | 49 | 1012.5 |
| 20260507202306 | 67 | 2 | 2.0 | 5.0 | 0.00 | 0.11 | 0.01 | 50 | 1012.5 |
| 20260507202203 | 66 | 7 | 2.0 | 5.0 | 0.00 | 0.11 | 0.01 | 53 | 1012.5 |
| 20260507202103 | 66 | 9 | 2.0 | 5.0 | 0.00 | 0.11 | 0.01 | 50 | 1012.4 |
| 20260507202018 | 66 | 10 | 2.0 | 5.0 | 0.00 | 0.11 | 0.01 | 49 | 1012.4 |
| 20260507202005 | 66 | 12 | 2.0 | 5.0 | 0.00 | 0.11 | 0.01 | 50 | 1012.4 |
| 20260507201903 | 66 | 17 | 2.0 | 5.0 | 0.00 | 0.11 | 0.01 | 48 | 1012.4 |
| 20260507201703 | 66 | 15 | 2.0 | 5.0 | 0.00 | 0.11 | 0.01 | 53 | 1012.5 |
| 20260507201603 | 66 | 15 | 2.0 | 5.0 | 0.00 | 0.11 | 0.01 | 49 | 1012.4 |
| 20260507201504 | 66 | 4 | 2.0 | 8.0 | 0.00 | 0.11 | 0.01 | 48 | 1012.5 |
| 20260507201403 | 66 | 355 | 2.0 | 8.0 | 0.00 | 0.11 | 0.01 | 50 | 1012.5 |
| 20260507201303 | 66 | 346 | 2.0 | 8.0 | 0.00 | 0.11 | 0.01 | 51 | 1012.5 |
| 20260507201203 | 67 | 335 | 1.0 | 8.0 | 0.00 | 0.11 | 0.01 | 52 | 1012.5 |
| 20260507201103 | 67 | 328 | 1.0 | 8.0 | 0.00 | 0.11 | 0.01 | 52 | 1012.5 |
| 20260507201004 | 66 | 322 | 1.0 | 8.0 | 0.00 | 0.11 | 0.01 | 52 | 1012.4 |
| 20260507200918 | 66 | 314 | 1.0 | 8.0 | 0.00 | 0.11 | 0.01 | 49 | 1012.4 |
| 20260507200903 | 66 | 314 | 1.0 | 8.0 | 0.00 | 0.11 | 0.01 | 48 | 1012.4 |
| 20260507200804 | 67 | 310 | 1.0 | 8.0 | 0.00 | 0.11 | 0.01 | 50 | 1012.4 |
| 20260507200603 | 67 | 306 | 1.0 | 8.0 | 0.00 | 0.11 | 0.01 | 47 | 1012.5 |
| 20260507200503 | 67 | 304 | 1.0 | 5.0 | 0.00 | 0.11 | 0.01 | 52 | 1012.5 |
| 20260507200303 | 67 | 327 | 1.0 | 5.0 | 0.00 | 0.11 | 0.01 | 53 | 1012.5 |
| 20260507200203 | 67 | 340 | 1.0 | 5.0 | 0.00 | 0.11 | 0.01 | 51 | 1012.4 |
| 20260507200018 | 67 | 332 | 2.0 | 5.0 | 0.00 | 0.11 | 0.01 | 51 | 1012.5 |
| 20260507200003 | 66 | 331 | 2.0 | 5.0 | 0.00 | 0.11 | 0.01 | 51 | 1012.5 |
| 20260507195903 | 66 | 332 | 2.0 | 5.0 | 0.00 | 0.11 | 0.01 | 48 | 1012.5 |
| 20260507195704 | 66 | 35 | 1.0 | 5.0 | 0.00 | 0.11 | 0.01 | 49 | 1012.5 |
| 20260507195603 | 66 | 31 | 2.0 | 5.0 | 0.00 | 0.11 | 0.01 | 52 | 1012.5 |
| 20260507195503 | 66 | 32 | 2.0 | 8.0 | 0.00 | 0.11 | 0.01 | 53 | 1012.5 |
| 20260507195403 | 67 | 41 | 2.0 | 8.0 | 0.00 | 0.11 | 0.01 | 51 | 1012.5 |
| 20260507195306 | 67 | 41 | 2.0 | 8.0 | 0.00 | 0.11 | 0.01 | 54 | 1012.5 |
| 20260507195203 | 66 | 55 | 2.0 | 8.0 | 0.00 | 0.11 | 0.01 | 52 | 1012.5 |
| 20260507195117 | 67 | 44 | 2.0 | 8.0 | 0.00 | 0.11 | 0.01 | 50 | 1012.5 |
| 20260507195103 | 67 | 31 | 2.0 | 8.0 | 0.00 | 0.11 | 0.01 | 50 | 1012.5 |
| 20260507195017 | 67 | 23 | 2.0 | 8.0 | 0.00 | 0.11 | 0.01 | 57 | 1012.6 |
| 20260507195003 | 67 | 21 | 2.0 | 8.0 | 0.00 | 0.11 | 0.01 | 57 | 1012.6 |
| 20260507194703 | 66 | 15 | 2.0 | 8.0 | 0.00 | 0.11 | 0.01 | 56 | 1012.6 |
| 20260507194603 | 66 | 20 | 2.0 | 8.0 | 0.00 | 0.11 | 0.01 | 51 | 1012.6 |
| 20260507194503 | 66 | 20 | 2.0 | 6.0 | 0.00 | 0.11 | 0.01 | 57 | 1012.6 |
| 20260507194404 | 66 | 14 | 2.0 | 6.0 | 0.00 | 0.11 | 0.01 | 54 | 1012.6 |
| 20260507194303 | 66 | 11 | 2.0 | 6.0 | 0.00 | 0.11 | 0.01 | 50 | 1012.6 |
| 20260507194203 | 66 | 9 | 2.0 | 6.0 | 0.00 | 0.11 | 0.01 | 50 | 1012.6 |
| 20260507194119 | 66 | 14 | 2.0 | 6.0 | 0.00 | 0.11 | 0.01 | 53 | 1012.6 |
| 20260507194103 | 66 | 19 | 2.0 | 4.0 | 0.00 | 0.11 | 0.01 | 53 | 1012.6 |
| 20260507194004 | 66 | 19 | 2.0 | 4.0 | 0.00 | 0.11 | 0.01 | 50 | 1012.6 |
| 20260507193918 | 66 | 19 | 2.0 | 4.0 | 0.00 | 0.11 | 0.01 | 52 | 1012.6 |
| 20260507193804 | 66 | 12 | 2.0 | 4.0 | 0.00 | 0.11 | 0.01 | 54 | 1012.6 |
| 20260507193603 | 66 | 21 | 2.0 | 5.0 | 0.00 | 0.11 | 0.01 | 51 | 1012.7 |
| 20260507193503 | 66 | 19 | 2.0 | 5.0 | 0.00 | 0.11 | 0.01 | 55 | 1012.7 |
| 20260507193404 | 66 | 21 | 2.0 | 5.0 | 0.00 | 0.11 | 0.01 | 53 | 1012.7 |
| 20260507193318 | 66 | 23 | 2.0 | 5.0 | 0.00 | 0.11 | 0.01 | 52 | 1012.7 |
| 20260507193303 | 66 | 24 | 2.0 | 5.0 | 0.00 | 0.11 | 0.01 | 52 | 1012.7 |
| 20260507193218 | 66 | 27 | 2.0 | 5.0 | 0.00 | 0.11 | 0.01 | 55 | 1012.7 |
| 20260507193204 | 66 | 28 | 2.0 | 5.0 | 0.00 | 0.11 | 0.01 | 55 | 1012.7 |
| 20260507192903 | 66 | 29 | 2.0 | 5.0 | 0.00 | 0.11 | 0.01 | 56 | 1012.6 |
| 20260507192804 | 66 | 32 | 2.0 | 5.0 | 0.00 | 0.11 | 0.01 | 54 | 1012.6 |
| 20260507192717 | 66 | 29 | 2.0 | 5.0 | 0.00 | 0.11 | 0.01 | 52 | 1012.7 |
| 20260507192703 | 66 | 27 | 2.0 | 5.0 | 0.00 | 0.11 | 0.01 | 49 | 1012.7 |
| 20260507192618 | 66 | 24 | 2.0 | 5.0 | 0.00 | 0.11 | 0.01 | 50 | 1012.7 |
| 20260507192604 | 66 | 22 | 2.0 | 5.0 | 0.00 | 0.11 | 0.01 | 50 | 1012.7 |
| 20260507192306 | 66 | 21 | 2.0 | 5.0 | 0.00 | 0.11 | 0.01 | 54 | 1012.7 |
| 20260507192203 | 66 | 23 | 2.0 | 5.0 | 0.00 | 0.11 | 0.01 | 57 | 1012.7 |
| 20260507192103 | 66 | 24 | 2.0 | 5.0 | 0.00 | 0.11 | 0.01 | 52 | 1012.7 |
| 20260507192003 | 66 | 23 | 2.0 | 5.0 | 0.00 | 0.11 | 0.01 | 52 | 1012.7 |
| 20260507191918 | 66 | 22 | 1.0 | 5.0 | 0.00 | 0.11 | 0.01 | 56 | 1012.8 |
| 20260507191903 | 66 | 24 | 1.0 | 5.0 | 0.00 | 0.11 | 0.01 | 56 | 1012.8 |
| 20260507191803 | 66 | 29 | 1.0 | 5.0 | 0.00 | 0.12 | 0.01 | 55 | 1012.7 |
| 20260507191603 | 65 | 32 | 1.0 | 5.0 | 0.00 | 0.12 | 0.01 | 52 | 1012.8 |
| 20260507191516 | 65 | 37 | 1.0 | 5.0 | 0.00 | 0.12 | 0.01 | 52 | 1012.8 |
| 20260507191503 | 65 | 40 | 1.0 | 5.0 | 0.00 | 0.12 | 0.01 | 49 | 1012.8 |
| 20260507191403 | 65 | 46 | 1.0 | 5.0 | 0.00 | 0.12 | 0.01 | 48 | 1012.8 |
| 20260507191204 | 66 | 82 | 1.0 | 4.0 | 0.00 | 0.12 | 0.01 | 50 | 1012.8 |
| 20260507191104 | 67 | 107 | 1.0 | 4.0 | 0.00 | 0.13 | 0.01 | 52 | 1012.8 |
| 20260507191003 | 66 | 138 | 2.0 | 6.0 | 0.00 | 0.13 | 0.01 | 51 | 1012.9 |
| 20260507190903 | 67 | 165 | 2.0 | 6.0 | 0.00 | 0.13 | 0.01 | 53 | 1012.9 |
| 20260507190803 | 67 | 188 | 2.0 | 6.0 | 0.00 | 0.13 | 0.01 | 54 | 1012.8 |
| 20260507190703 | 67 | 198 | 2.0 | 6.0 | 0.00 | 0.13 | 0.01 | 52 | 1012.8 |
| 20260507190618 | 67 | 186 | 2.0 | 6.0 | 0.00 | 0.14 | 0.01 | 59 | 1012.8 |
| 20260507190603 | 67 | 192 | 2.0 | 6.0 | 0.00 | 0.14 | 0.01 | 59 | 1012.8 |
| 20260507190503 | 66 | 204 | 2.0 | 6.0 | 0.00 | 0.14 | 0.01 | 56 | 1012.8 |
| 20260507190303 | 66 | 215 | 2.0 | 6.0 | 0.00 | 0.14 | 0.01 | 52 | 1012.8 |
| 20260507190218 | 66 | 216 | 2.0 | 6.0 | 0.00 | 0.14 | 0.01 | 53 | 1012.8 |
| 20260507190204 | 66 | 218 | 2.0 | 6.0 | 0.00 | 0.14 | 0.01 | 53 | 1012.8 |
| 20260507185918 | 67 | 255 | 1.0 | 5.0 | 0.00 | 0.14 | 0.01 | 52 | 1012.8 |
| 20260507185903 | 67 | 261 | 1.0 | 5.0 | 0.00 | 0.14 | 0.01 | 52 | 1012.8 |
| 20260507185803 | 67 | 252 | 1.0 | 4.0 | 0.00 | 0.15 | 0.01 | 53 | 1012.7 |
| 20260507185603 | 66 | 302 | 1.0 | 3.0 | 0.00 | 0.15 | 0.01 | 53 | 1012.7 |
| 20260507185504 | 66 | 308 | 1.0 | 5.0 | 0.00 | 0.15 | 0.01 | 51 | 1012.7 |
| 20260507185403 | 66 | 299 | 1.0 | 5.0 | 0.00 | 0.15 | 0.01 | 55 | 1012.7 |
| 20260507185306 | 66 | 311 | 1.0 | 5.0 | 0.00 | 0.15 | 0.01 | 52 | 1012.8 |
| 20260507185203 | 66 | 316 | 1.0 | 5.0 | 0.00 | 0.15 | 0.01 | 53 | 1012.8 |
| 20260507185117 | 66 | 309 | 1.0 | 5.0 | 0.00 | 0.15 | 0.01 | 51 | 1012.8 |
| 20260507185103 | 67 | 310 | 1.0 | 5.0 | 0.00 | 0.15 | 0.01 | 51 | 1012.8 |
| 20260507185003 | 67 | 318 | 1.0 | 5.0 | 0.00 | 0.15 | 0.01 | 50 | 1012.8 |
| 20260507184803 | 67 | 291 | 1.0 | 5.0 | 0.00 | 0.15 | 0.01 | 57 | 1012.8 |
| 20260507184703 | 67 | 289 | 1.0 | 5.0 | 0.00 | 0.15 | 0.01 | 56 | 1012.8 |
| 20260507184618 | 66 | 285 | 1.0 | 5.0 | 0.00 | 0.15 | 0.01 | 56 | 1012.8 |
| 20260507184603 | 66 | 283 | 1.0 | 5.0 | 0.00 | 0.15 | 0.01 | 52 | 1012.8 |
| 20260507184504 | 66 | 273 | 1.0 | 3.0 | 0.00 | 0.15 | 0.01 | 50 | 1012.8 |
| 20260507184303 | 66 | 278 | 1.0 | 3.0 | 0.00 | 0.16 | 0.01 | 55 | 1012.9 |
| 20260507184204 | 66 | 273 | 1.0 | 3.0 | 0.00 | 0.16 | 0.01 | 53 | 1012.9 |
| 20260507184104 | 66 | 275 | 1.0 | 4.0 | 0.00 | 0.16 | 0.01 | 56 | 1012.9 |
| 20260507184004 | 66 | 270 | 1.0 | 4.0 | 0.00 | 0.16 | 0.01 | 53 | 1012.9 |
| 20260507183904 | 66 | 273 | 1.0 | 4.0 | 0.00 | 0.16 | 0.01 | 55 | 1012.9 |
| 20260507183803 | 66 | 275 | 1.0 | 4.0 | 0.00 | 0.16 | 0.01 | 57 | 1012.9 |
| 20260507183703 | 66 | 269 | 1.0 | 4.0 | 0.00 | 0.17 | 0.01 | 53 | 1012.9 |
| 20260507183504 | 66 | 255 | 1.0 | 4.0 | 0.00 | 0.17 | 0.01 | 60 | 1012.9 |
| 20260507183403 | 66 | 230 | 1.0 | 4.0 | 0.00 | 0.17 | 0.01 | 56 | 1012.9 |
| 20260507183304 | 65 | 148 | 1.0 | 4.0 | 0.00 | 0.17 | 0.01 | 56 | 1012.9 |
| 20260507183203 | 65 | 109 | 1.0 | 4.0 | 0.00 | 0.17 | 0.01 | 52 | 1012.9 |
| 20260507183103 | 65 | 110 | 1.0 | 4.0 | 0.00 | 0.17 | 0.01 | 53 | 1012.9 |
| 20260507182903 | 66 | 97 | 1.0 | 3.0 | 0.00 | 0.17 | 0.01 | 56 | 1012.9 |
| 20260507182803 | 66 | 90 | 1.0 | 3.0 | 0.00 | 0.17 | 0.01 | 55 | 1012.9 |
| 20260507182703 | 66 | 73 | 1.0 | 4.0 | 0.00 | 0.18 | 0.01 | 53 | 1012.9 |
| 20260507182604 | 66 | 59 | 1.0 | 4.0 | 0.00 | 0.18 | 0.01 | 57 | 1012.9 |
| 20260507182503 | 66 | 47 | 1.0 | 7.0 | 0.00 | 0.18 | 0.01 | 60 | 1012.9 |
| 20260507182403 | 65 | 37 | 2.0 | 7.0 | 0.00 | 0.18 | 0.01 | 60 | 1012.9 |
| 20260507182317 | 65 | 32 | 2.0 | 7.0 | 0.00 | 0.18 | 0.01 | 61 | 1012.9 |
| 20260507182306 | 65 | 31 | 2.0 | 7.0 | 0.00 | 0.18 | 0.01 | 59 | 1012.9 |
| 20260507182218 | 64 | 27 | 2.0 | 7.0 | 0.00 | 0.18 | 0.01 | 59 | 1012.9 |
| 20260507182203 | 64 | 27 | 2.0 | 7.0 | 0.00 | 0.18 | 0.01 | 58 | 1012.9 |
| 20260507182116 | 64 | 29 | 2.0 | 7.0 | 0.00 | 0.18 | 0.01 | 58 | 1012.9 |
| 20260507181803 | 64 | 29 | 3.0 | 7.0 | 0.00 | 0.18 | 0.01 | 56 | 1013.0 |
| 20260507181719 | 64 | 50 | 3.0 | 7.0 | 0.00 | 0.18 | 0.01 | 57 | 1012.9 |
| 20260507181704 | 64 | 58 | 3.0 | 7.0 | 0.00 | 0.18 | 0.01 | 55 | 1012.9 |
| 20260507181603 | 64 | 87 | 3.0 | 7.0 | 0.00 | 0.18 | 0.01 | 58 | 1012.9 |
| 20260507181404 | 64 | 116 | 2.0 | 7.0 | 0.00 | 0.18 | 0.01 | 60 | 1012.9 |
| 20260507181303 | 64 | 114 | 2.0 | 7.0 | 0.00 | 0.18 | 0.01 | 58 | 1012.9 |
| 20260507181203 | 64 | 112 | 2.0 | 7.0 | 0.00 | 0.18 | 0.01 | 56 | 1012.9 |
| 20260507181104 | 64 | 86 | 2.0 | 7.0 | 0.00 | 0.18 | 0.01 | 60 | 1012.9 |
| 20260507181003 | 64 | 132 | 2.0 | 7.0 | 0.00 | 0.18 | 0.01 | 55 | 1012.9 |
| 20260507180917 | 64 | 133 | 2.0 | 7.0 | 0.00 | 0.18 | 0.01 | 56 | 1012.9 |
| 20260507180903 | 64 | 128 | 2.0 | 7.0 | 0.00 | 0.18 | 0.01 | 56 | 1012.9 |
| 20260507180804 | 63 | 76 | 2.0 | 7.0 | 0.00 | 0.18 | 0.01 | 54 | 1012.9 |
| 20260507180603 | 64 | 3 | 1.0 | 5.0 | 0.00 | 0.18 | 0.01 | 54 | 1013.2 |
| 20260507180503 | 64 | 5 | 1.0 | 5.0 | 0.00 | 0.18 | 0.01 | 54 | 1013.2 |
| 20260507180418 | 64 | 7 | 1.0 | 5.0 | 0.00 | 0.18 | 0.01 | 54 | 1013.2 |
| 20260507180403 | 64 | 8 | 1.0 | 5.0 | 0.00 | 0.18 | 0.01 | 54 | 1013.2 |
| 20260507180304 | 64 | 352 | 1.0 | 5.0 | 0.00 | 0.18 | 0.01 | 55 | 1013.2 |
| 20260507180218 | 65 | 214 | 1.0 | 4.0 | 0.00 | 0.18 | 0.01 | 59 | 1013.2 |
| 20260507180104 | 64 | 179 | 1.0 | 3.0 | 0.00 | 0.18 | 0.01 | 56 | 1013.2 |
| 20260507180017 | 64 | 79 | 1.0 | 6.0 | 0.00 | 0.18 | 0.01 | 58 | 1013.2 |
| 20260507175903 | 64 | 84 | 1.0 | 6.0 | 0.00 | 0.18 | 0.01 | 59 | 1013.2 |
| 20260507175717 | 63 | 11 | 1.0 | 6.0 | 0.00 | 0.18 | 0.01 | 58 | 1013.2 |
| 20260507175703 | 63 | 14 | 1.0 | 6.0 | 0.00 | 0.18 | 0.01 | 58 | 1013.2 |
| 20260507175603 | 64 | 19 | 1.0 | 6.0 | 0.00 | 0.18 | 0.01 | 56 | 1013.2 |
| 20260507175518 | 64 | 19 | 2.0 | 6.0 | 0.00 | 0.18 | 0.01 | 55 | 1013.2 |
| 20260507175403 | 64 | 13 | 2.0 | 7.0 | 0.00 | 0.18 | 0.01 | 56 | 1013.3 |
| 20260507175204 | 64 | 9 | 2.0 | 7.0 | 0.00 | 0.18 | 0.01 | 56 | 1013.3 |
| 20260507175103 | 65 | 8 | 2.0 | 7.0 | 0.00 | 0.18 | 0.01 | 62 | 1013.4 |
| 20260507175004 | 65 | 6 | 2.0 | 7.0 | 0.00 | 0.18 | 0.01 | 57 | 1013.4 |
| 20260507174903 | 65 | 344 | 2.0 | 7.0 | 0.00 | 0.18 | 0.01 | 56 | 1013.4 |
| 20260507174803 | 65 | 350 | 2.0 | 7.0 | 0.00 | 0.18 | 0.01 | 54 | 1013.4 |
| 20260507174703 | 65 | 8 | 2.0 | 7.0 | 0.00 | 0.18 | 0.01 | 50 | 1013.4 |
| 20260507174603 | 66 | 354 | 2.0 | 7.0 | 0.00 | 0.18 | 0.01 | 57 | 1013.5 |
| 20260507174504 | 66 | 341 | 1.0 | 7.0 | 0.00 | 0.18 | 0.01 | 53 | 1013.5 |
| 20260507174416 | 66 | 204 | 2.0 | 7.0 | 0.00 | 0.18 | 0.01 | 53 | 1013.5 |
| 20260507174403 | 66 | 191 | 2.0 | 7.0 | 0.00 | 0.18 | 0.01 | 53 | 1013.5 |
| 20260507174304 | 66 | 188 | 2.0 | 7.0 | 0.00 | 0.18 | 0.01 | 54 | 1013.5 |
| 20260507174218 | 66 | 196 | 2.0 | 7.0 | 0.00 | 0.18 | 0.01 | 54 | 1013.5 |
| 20260507174104 | 66 | 266 | 2.0 | 7.0 | 0.00 | 0.18 | 0.01 | 55 | 1013.7 |
| 20260507174019 | 66 | 288 | 2.0 | 7.0 | 0.00 | 0.18 | 0.01 | 57 | 1013.7 |
| 20260507173903 | 66 | 309 | 2.0 | 7.0 | 0.00 | 0.18 | 0.01 | 60 | 1013.6 |
| 20260507173704 | 65 | 302 | 2.0 | 9.0 | 0.00 | 0.18 | 0.01 | 54 | 1013.6 |
| 20260507173604 | 65 | 293 | 2.0 | 9.0 | 0.00 | 0.18 | 0.01 | 56 | 1013.6 |
| 20260507173503 | 65 | 279 | 2.0 | 9.0 | 0.00 | 0.18 | 0.01 | 53 | 1013.6 |
| 20260507173403 | 65 | 284 | 2.0 | 9.0 | 0.00 | 0.18 | 0.01 | 56 | 1013.6 |
| 20260507173303 | 65 | 279 | 2.0 | 9.0 | 0.00 | 0.18 | 0.01 | 55 | 1013.7 |
| 20260507173203 | 65 | 279 | 1.0 | 9.0 | 0.00 | 0.18 | 0.01 | 56 | 1013.7 |
| 20260507173104 | 65 | 282 | 1.0 | 9.0 | 0.00 | 0.18 | 0.01 | 54 | 1013.7 |
| 20260507172903 | 65 | 309 | 1.0 | 9.0 | 0.00 | 0.18 | 0.01 | 54 | 1013.6 |
| 20260507172804 | 65 | 330 | 1.0 | 9.0 | 0.00 | 0.18 | 0.01 | 59 | 1013.6 |
| 20260507172716 | 65 | 63 | 1.0 | 4.0 | 0.00 | 0.18 | 0.01 | 56 | 1013.6 |
| 20260507172703 | 65 | 59 | 1.0 | 4.0 | 0.00 | 0.18 | 0.01 | 56 | 1013.6 |
| 20260507172617 | 65 | 41 | 2.0 | 4.0 | 0.00 | 0.18 | 0.01 | 56 | 1013.6 |
| 20260507172604 | 65 | 42 | 2.0 | 4.0 | 0.00 | 0.18 | 0.01 | 56 | 1013.6 |
| 20260507172307 | 64 | 30 | 2.0 | 5.0 | 0.00 | 0.18 | 0.01 | 59 | 1013.6 |
| 20260507172203 | 64 | 28 | 2.0 | 5.0 | 0.00 | 0.18 | 0.01 | 58 | 1013.6 |
| 20260507172118 | 64 | 27 | 2.0 | 5.0 | 0.00 | 0.18 | 0.01 | 58 | 1013.6 |
| 20260507172103 | 64 | 28 | 2.0 | 5.0 | 0.00 | 0.18 | 0.01 | 58 | 1013.6 |
| 20260507171803 | 65 | 24 | 2.0 | 8.0 | 0.00 | 0.18 | 0.01 | 56 | 1013.6 |
| 20260507171704 | 65 | 20 | 2.0 | 8.0 | 0.00 | 0.18 | 0.01 | 59 | 1013.6 |
| 20260507171603 | 65 | 20 | 2.0 | 8.0 | 0.00 | 0.18 | 0.01 | 60 | 1013.6 |
| 20260507171503 | 65 | 17 | 2.0 | 8.0 | 0.00 | 0.18 | 0.01 | 58 | 1013.6 |
| 20260507171403 | 65 | 19 | 2.0 | 8.0 | 0.00 | 0.18 | 0.01 | 57 | 1013.5 |
| 20260507171303 | 65 | 18 | 2.0 | 8.0 | 0.00 | 0.18 | 0.01 | 62 | 1013.5 |
| 20260507171219 | 65 | 20 | 2.0 | 8.0 | 0.00 | 0.18 | 0.01 | 62 | 1013.6 |
| 20260507171203 | 65 | 20 | 2.0 | 8.0 | 0.00 | 0.18 | 0.01 | 61 | 1013.6 |
| 20260507171118 | 65 | 19 | 3.0 | 8.0 | 0.00 | 0.18 | 0.01 | 59 | 1013.6 |
| 20260507171103 | 65 | 18 | 3.0 | 8.0 | 0.00 | 0.18 | 0.01 | 59 | 1013.6 |
| 20260507170803 | 65 | 10 | 3.0 | 7.0 | 0.00 | 0.18 | 0.01 | 61 | 1013.6 |
| 20260507170704 | 65 | 10 | 3.0 | 7.0 | 0.00 | 0.18 | 0.01 | 59 | 1013.5 |
| 20260507170604 | 65 | 6 | 2.0 | 7.0 | 0.00 | 0.18 | 0.01 | 57 | 1013.5 |
| 20260507170504 | 65 | 5 | 2.0 | 7.0 | 0.00 | 0.18 | 0.01 | 57 | 1013.6 |
| 20260507170403 | 65 | 358 | 2.0 | 7.0 | 0.00 | 0.18 | 0.01 | 56 | 1013.7 |
| 20260507170304 | 65 | 351 | 2.0 | 7.0 | 0.00 | 0.18 | 0.01 | 58 | 1013.7 |
| 20260507170204 | 65 | 337 | 2.0 | 7.0 | 0.00 | 0.18 | 0.01 | 58 | 1013.7 |
| 20260507170118 | 65 | 333 | 2.0 | 7.0 | 0.00 | 0.18 | 0.01 | 58 | 1013.7 |
| 20260507170103 | 65 | 334 | 2.0 | 7.0 | 0.00 | 0.18 | 0.01 | 56 | 1013.7 |
| 20260507170003 | 65 | 333 | 2.0 | 4.0 | 0.00 | 0.18 | 0.01 | 57 | 1013.7 |
| 20260507165803 | 65 | 307 | 2.0 | 4.0 | 0.00 | 0.18 | 0.01 | 56 | 1013.7 |
| 20260507165703 | 65 | 282 | 2.0 | 4.0 | 0.00 | 0.18 | 0.01 | 57 | 1013.7 |
| 20260507165604 | 65 | 282 | 2.0 | 4.0 | 0.00 | 0.18 | 0.01 | 61 | 1013.7 |
| 20260507165519 | 65 | 286 | 2.0 | 4.0 | 0.00 | 0.18 | 0.01 | 61 | 1013.7 |
| 20260507165504 | 65 | 288 | 2.0 | 4.0 | 0.00 | 0.18 | 0.01 | 59 | 1013.7 |
| 20260507165418 | 65 | 293 | 2.0 | 4.0 | 0.00 | 0.18 | 0.01 | 59 | 1013.6 |
| 20260507165403 | 65 | 295 | 2.0 | 4.0 | 0.00 | 0.18 | 0.01 | 57 | 1013.6 |
| 20260507165317 | 65 | 299 | 2.0 | 4.0 | 0.00 | 0.18 | 0.01 | 59 | 1013.6 |
| 20260507165118 | 65 | 298 | 1.0 | 4.0 | 0.00 | 0.18 | 0.01 | 60 | 1013.7 |
| 20260507165003 | 65 | 284 | 1.0 | 4.0 | 0.00 | 0.18 | 0.01 | 60 | 1013.6 |
| 20260507164803 | 64 | 314 | 1.0 | 5.0 | 0.00 | 0.18 | 0.01 | 61 | 1013.7 |
| 20260507164704 | 64 | 349 | 1.0 | 5.0 | 0.00 | 0.18 | 0.01 | 63 | 1013.8 |
| 20260507164603 | 64 | 5 | 1.0 | 5.0 | 0.00 | 0.18 | 0.01 | 64 | 1013.8 |
| 20260507164503 | 64 | 5 | 1.0 | 5.0 | 0.00 | 0.18 | 0.01 | 67 | 1013.8 |
| 20260507164403 | 64 | 8 | 1.0 | 5.0 | 0.00 | 0.18 | 0.01 | 64 | 1013.8 |
| 20260507164303 | 64 | 3 | 2.0 | 5.0 | 0.00 | 0.18 | 0.01 | 61 | 1013.8 |
| 20260507164203 | 64 | 14 | 2.0 | 5.0 | 0.00 | 0.18 | 0.01 | 62 | 1013.7 |
| 20260507164103 | 63 | 19 | 2.0 | 5.0 | 0.00 | 0.18 | 0.01 | 63 | 1013.6 |
| 20260507164003 | 63 | 21 | 2.0 | 5.0 | 0.00 | 0.18 | 0.01 | 60 | 1013.6 |
| 20260507163903 | 63 | 27 | 2.0 | 5.0 | 0.00 | 0.18 | 0.01 | 59 | 1013.6 |
| 20260507163803 | 63 | 33 | 2.0 | 5.0 | 0.00 | 0.18 | 0.01 | 60 | 1013.7 |
| 20260507163718 | 63 | 34 | 2.0 | 5.0 | 0.00 | 0.18 | 0.01 | 61 | 1013.7 |
| 20260507163704 | 63 | 35 | 2.0 | 5.0 | 0.00 | 0.18 | 0.01 | 65 | 1013.7 |
| 20260507163604 | 63 | 119 | 2.0 | 5.0 | 0.00 | 0.18 | 0.01 | 63 | 1013.8 |
| 20260507163403 | 63 | 49 | 2.0 | 5.0 | 0.00 | 0.18 | 0.01 | 60 | 1013.9 |
| 20260507163303 | 64 | 47 | 1.0 | 5.0 | 0.00 | 0.18 | 0.01 | 63 | 1014.0 |
| 20260507163204 | 64 | 47 | 1.0 | 5.0 | 0.00 | 0.18 | 0.01 | 64 | 1014.0 |
| 20260507163103 | 64 | 49 | 1.0 | 5.0 | 0.00 | 0.18 | 0.01 | 65 | 1013.9 |
| 20260507163003 | 63 | 59 | 1.0 | 5.0 | 0.00 | 0.18 | 0.01 | 62 | 1013.9 |
| 20260507162903 | 63 | 48 | 1.0 | 5.0 | 0.00 | 0.18 | 0.01 | 62 | 1013.9 |
| 20260507162803 | 63 | 30 | 1.0 | 5.0 | 0.00 | 0.18 | 0.01 | 61 | 1013.9 |
| 20260507162718 | 63 | 34 | 1.0 | 5.0 | 0.00 | 0.18 | 0.01 | 61 | 1013.9 |
| 20260507162703 | 63 | 33 | 1.0 | 5.0 | 0.00 | 0.18 | 0.01 | 61 | 1013.9 |
| 20260507162603 | 63 | 33 | 1.0 | 4.0 | 0.00 | 0.18 | 0.01 | 61 | 1013.9 |
| 20260507162517 | 63 | 37 | 2.0 | 4.0 | 0.00 | 0.18 | 0.01 | 61 | 1013.9 |
| 20260507162403 | 63 | 41 | 2.0 | 4.0 | 0.00 | 0.18 | 0.01 | 63 | 1013.8 |
| 20260507162203 | 63 | 67 | 2.0 | 4.0 | 0.00 | 0.18 | 0.01 | 63 | 1013.8 |
| 20260507162103 | 63 | 63 | 2.0 | 4.0 | 0.00 | 0.18 | 0.01 | 59 | 1013.8 |
| 20260507162003 | 63 | 26 | 2.0 | 7.0 | 0.00 | 0.18 | 0.01 | 68 | 1013.9 |
| 20260507161903 | 63 | 20 | 2.0 | 7.0 | 0.00 | 0.18 | 0.01 | 63 | 1013.9 |
| 20260507161803 | 63 | 35 | 2.0 | 7.0 | 0.00 | 0.18 | 0.01 | 65 | 1013.9 |
| 20260507161703 | 63 | 37 | 2.0 | 7.0 | 0.00 | 0.18 | 0.01 | 62 | 1013.9 |
| 20260507161604 | 62 | 40 | 2.0 | 7.0 | 0.00 | 0.18 | 0.01 | 65 | 1013.9 |
| 20260507161504 | 62 | 21 | 2.0 | 7.0 | 0.00 | 0.18 | 0.01 | 64 | 1013.9 |
| 20260507161403 | 62 | 32 | 2.0 | 7.0 | 0.00 | 0.18 | 0.01 | 61 | 1013.9 |
| 20260507161303 | 62 | 17 | 2.0 | 7.0 | 0.00 | 0.18 | 0.01 | 63 | 1014.0 |
| 20260507161203 | 62 | 20 | 1.0 | 7.0 | 0.00 | 0.18 | 0.01 | 64 | 1014.0 |
| 20260507161103 | 62 | 37 | 1.0 | 7.0 | 0.00 | 0.18 | 0.01 | 64 | 1014.0 |
| 20260507161003 | 62 | 185 | 1.0 | 6.0 | 0.00 | 0.18 | 0.01 | 63 | 1014.0 |
| 20260507160903 | 62 | 199 | 1.0 | 6.0 | 0.00 | 0.18 | 0.01 | 67 | 1014.0 |
| 20260507160803 | 62 | 218 | 1.0 | 5.0 | 0.00 | 0.18 | 0.01 | 65 | 1014.0 |
| 20260507160704 | 62 | 232 | 1.0 | 5.0 | 0.00 | 0.18 | 0.01 | 65 | 1014.0 |
| 20260507160603 | 62 | 230 | 1.0 | 3.0 | 0.00 | 0.18 | 0.01 | 65 | 1014.0 |
| 20260507160504 | 62 | 231 | 1.0 | 3.0 | 0.00 | 0.18 | 0.01 | 64 | 1014.0 |
| 20260507160404 | 62 | 296 | 1.0 | 6.0 | 0.00 | 0.18 | 0.01 | 62 | 1014.0 |
| 20260507160303 | 62 | 338 | 2.0 | 8.0 | 0.00 | 0.18 | 0.01 | 63 | 1014.0 |
| 20260507160204 | 62 | 357 | 2.0 | 8.0 | 0.00 | 0.18 | 0.01 | 64 | 1014.1 |
| 20260507160003 | 62 | 9 | 2.0 | 8.0 | 0.00 | 0.18 | 0.01 | 63 | 1014.2 |
| 20260507155904 | 62 | 19 | 2.0 | 8.0 | 0.00 | 0.18 | 0.01 | 64 | 1014.2 |
| 20260507155803 | 62 | 22 | 2.0 | 8.0 | 0.00 | 0.18 | 0.01 | 63 | 1014.1 |
| 20260507155718 | 62 | 26 | 3.0 | 8.0 | 0.00 | 0.18 | 0.01 | 64 | 1014.1 |
| 20260507155704 | 62 | 25 | 3.0 | 8.0 | 0.00 | 0.18 | 0.01 | 65 | 1014.1 |
| 20260507155604 | 62 | 26 | 3.0 | 8.0 | 0.00 | 0.18 | 0.01 | 63 | 1014.1 |
| 20260507155403 | 62 | 25 | 2.0 | 8.0 | 0.00 | 0.18 | 0.01 | 62 | 1014.1 |
| 20260507155306 | 63 | 27 | 2.0 | 7.0 | 0.00 | 0.18 | 0.01 | 62 | 1014.0 |
| 20260507155204 | 63 | 24 | 2.0 | 7.0 | 0.00 | 0.18 | 0.01 | 65 | 1014.0 |
| 20260507155003 | 62 | 28 | 2.0 | 7.0 | 0.00 | 0.18 | 0.01 | 62 | 1013.9 |
| 20260507154903 | 62 | 25 | 2.0 | 7.0 | 0.00 | 0.18 | 0.01 | 62 | 1014.0 |
| 20260507154803 | 62 | 26 | 2.0 | 7.0 | 0.00 | 0.18 | 0.01 | 63 | 1014.0 |
| 20260507154703 | 62 | 27 | 2.0 | 5.0 | 0.00 | 0.18 | 0.01 | 64 | 1014.0 |
| 20260507154503 | 62 | 29 | 2.0 | 7.0 | 0.00 | 0.18 | 0.01 | 65 | 1014.0 |
| 20260507154404 | 62 | 29 | 2.0 | 7.0 | 0.00 | 0.18 | 0.01 | 63 | 1014.0 |
| 20260507154304 | 62 | 28 | 2.0 | 7.0 | 0.00 | 0.18 | 0.01 | 66 | 1014.0 |
| 20260507154204 | 62 | 30 | 2.0 | 7.0 | 0.00 | 0.18 | 0.01 | 65 | 1014.1 |
| 20260507154103 | 62 | 30 | 2.0 | 7.0 | 0.00 | 0.18 | 0.01 | 63 | 1014.1 |
| 20260507154003 | 62 | 28 | 2.0 | 7.0 | 0.00 | 0.18 | 0.01 | 65 | 1014.1 |
| 20260507153903 | 62 | 27 | 2.0 | 7.0 | 0.00 | 0.18 | 0.01 | 61 | 1014.1 |
| 20260507153804 | 62 | 27 | 2.0 | 7.0 | 0.00 | 0.18 | 0.01 | 62 | 1014.1 |
| 20260507153703 | 62 | 26 | 2.0 | 7.0 | 0.00 | 0.18 | 0.01 | 61 | 1014.2 |
| 20260507153604 | 63 | 22 | 1.0 | 7.0 | 0.00 | 0.18 | 0.01 | 64 | 1014.2 |
| 20260507153403 | 62 | 19 | 2.0 | 7.0 | 0.00 | 0.18 | 0.01 | 68 | 1014.2 |
| 20260507153304 | 62 | 17 | 2.0 | 7.0 | 0.00 | 0.18 | 0.01 | 69 | 1014.2 |
| 20260507153204 | 62 | 20 | 2.0 | 7.0 | 0.00 | 0.18 | 0.01 | 70 | 1014.1 |
| 20260507153104 | 62 | 16 | 2.0 | 7.0 | 0.00 | 0.18 | 0.01 | 70 | 1014.1 |
| 20260507152903 | 62 | 13 | 2.0 | 7.0 | 0.00 | 0.18 | 0.01 | 68 | 1014.0 |
| 20260507152817 | 62 | 16 | 2.0 | 7.0 | 0.00 | 0.18 | 0.01 | 66 | 1014.0 |
| 20260507152804 | 62 | 17 | 2.0 | 7.0 | 0.00 | 0.18 | 0.01 | 67 | 1014.0 |
| 20260507152718 | 62 | 20 | 2.0 | 7.0 | 0.00 | 0.18 | 0.01 | 67 | 1014.0 |
| 20260507152704 | 62 | 21 | 2.0 | 7.0 | 0.00 | 0.18 | 0.01 | 69 | 1014.0 |
| 20260507152418 | 62 | 45 | 2.0 | 6.0 | 0.00 | 0.18 | 0.01 | 66 | 1014.0 |
| 20260507152403 | 62 | 43 | 2.0 | 6.0 | 0.00 | 0.18 | 0.01 | 66 | 1014.0 |
| 20260507152306 | 62 | 45 | 2.0 | 6.0 | 0.00 | 0.18 | 0.01 | 64 | 1014.0 |
| 20260507152217 | 62 | 39 | 2.0 | 6.0 | 0.00 | 0.18 | 0.01 | 67 | 1014.0 |
| 20260507152103 | 62 | 43 | 2.0 | 6.0 | 0.00 | 0.18 | 0.01 | 64 | 1014.0 |
| 20260507151904 | 61 | 46 | 2.0 | 6.0 | 0.00 | 0.18 | 0.01 | 66 | 1014.0 |
| 20260507151803 | 61 | 39 | 2.0 | 7.0 | 0.00 | 0.18 | 0.01 | 65 | 1014.0 |
| 20260507151703 | 61 | 32 | 2.0 | 7.0 | 0.00 | 0.18 | 0.01 | 65 | 1013.9 |
| 20260507151618 | 61 | 30 | 2.0 | 7.0 | 0.00 | 0.18 | 0.01 | 65 | 1013.9 |
| 20260507151604 | 61 | 27 | 2.0 | 7.0 | 0.00 | 0.18 | 0.01 | 67 | 1013.9 |
| 20260507151519 | 61 | 28 | 2.0 | 7.0 | 0.00 | 0.18 | 0.01 | 67 | 1013.9 |
| 20260507151504 | 61 | 28 | 2.0 | 7.0 | 0.00 | 0.18 | 0.01 | 68 | 1013.9 |
| 20260507151217 | 61 | 24 | 2.0 | 7.0 | 0.00 | 0.18 | 0.01 | 64 | 1013.9 |
| 20260507151204 | 61 | 25 | 2.0 | 7.0 | 0.00 | 0.18 | 0.01 | 64 | 1013.9 |
| 20260507151117 | 61 | 23 | 2.0 | 7.0 | 0.00 | 0.18 | 0.01 | 66 | 1013.9 |
| 20260507151103 | 61 | 21 | 2.0 | 7.0 | 0.00 | 0.18 | 0.01 | 66 | 1013.9 |
| 20260507150803 | 61 | 17 | 2.0 | 5.0 | 0.00 | 0.18 | 0.01 | 64 | 1014.0 |
| 20260507150703 | 61 | 20 | 2.0 | 5.0 | 0.00 | 0.18 | 0.01 | 64 | 1014.0 |
| 20260507150603 | 61 | 18 | 2.0 | 5.0 | 0.00 | 0.18 | 0.01 | 65 | 1014.1 |
| 20260507150503 | 61 | 17 | 2.0 | 5.0 | 0.00 | 0.18 | 0.01 | 67 | 1014.1 |
| 20260507150403 | 61 | 30 | 2.0 | 5.0 | 0.00 | 0.18 | 0.01 | 68 | 1014.1 |
| 20260507150204 | 61 | 19 | 2.0 | 5.0 | 0.00 | 0.18 | 0.01 | 67 | 1014.0 |
| 20260507150003 | 61 | 10 | 2.0 | 5.0 | 0.00 | 0.18 | 0.01 | 68 | 1013.9 |
| 20260507145904 | 61 | 6 | 2.0 | 4.0 | 0.00 | 0.18 | 0.01 | 68 | 1013.9 |
| 20260507145803 | 61 | 12 | 2.0 | 4.0 | 0.00 | 0.18 | 0.01 | 67 | 1014.0 |
| 20260507145703 | 61 | 4 | 2.0 | 4.0 | 0.00 | 0.18 | 0.01 | 71 | 1014.0 |
| 20260507145603 | 61 | 7 | 2.0 | 4.0 | 0.00 | 0.18 | 0.01 | 69 | 1013.9 |
| 20260507145504 | 61 | 8 | 2.0 | 4.0 | 0.00 | 0.18 | 0.01 | 68 | 1013.9 |
| 20260507145404 | 61 | 6 | 2.0 | 5.0 | 0.00 | 0.18 | 0.01 | 71 | 1013.9 |
| 20260507145306 | 60 | 11 | 2.0 | 5.0 | 0.00 | 0.18 | 0.01 | 70 | 1013.9 |
| 20260507145203 | 60 | 19 | 2.0 | 5.0 | 0.00 | 0.18 | 0.01 | 72 | 1013.9 |
| 20260507145104 | 60 | 23 | 2.0 | 5.0 | 0.00 | 0.18 | 0.01 | 71 | 1013.9 |
| 20260507145003 | 60 | 23 | 2.0 | 5.0 | 0.00 | 0.18 | 0.01 | 72 | 1014.0 |
| 20260507144903 | 60 | 24 | 2.0 | 5.0 | 0.00 | 0.18 | 0.01 | 70 | 1014.0 |
| 20260507144804 | 60 | 24 | 2.0 | 5.0 | 0.00 | 0.18 | 0.01 | 68 | 1014.0 |
| 20260507144703 | 60 | 29 | 2.0 | 5.0 | 0.00 | 0.18 | 0.01 | 68 | 1014.0 |
| 20260507144603 | 60 | 27 | 2.0 | 5.0 | 0.00 | 0.18 | 0.01 | 67 | 1013.9 |
| 20260507144504 | 60 | 28 | 2.0 | 5.0 | 0.00 | 0.18 | 0.01 | 69 | 1013.9 |
| 20260507144404 | 60 | 35 | 2.0 | 4.0 | 0.00 | 0.18 | 0.01 | 68 | 1013.9 |
| 20260507144304 | 60 | 34 | 2.0 | 4.0 | 0.00 | 0.18 | 0.01 | 70 | 1013.9 |
| 20260507144203 | 60 | 36 | 2.0 | 4.0 | 0.00 | 0.18 | 0.01 | 69 | 1013.9 |
| 20260507144004 | 60 | 29 | 2.0 | 5.0 | 0.00 | 0.18 | 0.01 | 71 | 1013.9 |
| 20260507143904 | 60 | 23 | 2.0 | 5.0 | 0.00 | 0.18 | 0.01 | 71 | 1013.9 |
| 20260507143803 | 60 | 18 | 2.0 | 5.0 | 0.00 | 0.18 | 0.01 | 69 | 1013.9 |
| 20260507143703 | 60 | 15 | 2.0 | 5.0 | 0.00 | 0.18 | 0.01 | 68 | 1014.0 |
| 20260507143603 | 60 | 14 | 2.0 | 5.0 | 0.00 | 0.18 | 0.01 | 69 | 1014.0 |
| 20260507143503 | 60 | 12 | 2.0 | 5.0 | 0.00 | 0.18 | 0.01 | 73 | 1013.9 |
| 20260507143417 | 60 | 6 | 2.0 | 5.0 | 0.00 | 0.18 | 0.01 | 73 | 1013.9 |
| 20260507143303 | 60 | 4 | 2.0 | 5.0 | 0.00 | 0.18 | 0.01 | 69 | 1013.8 |
| 20260507143003 | 59 | 12 | 2.0 | 6.0 | 0.00 | 0.18 | 0.01 | 73 | 1013.9 |
| 20260507142904 | 59 | 21 | 2.0 | 6.0 | 0.00 | 0.18 | 0.01 | 71 | 1013.9 |
| 20260507142803 | 59 | 26 | 2.0 | 6.0 | 0.00 | 0.18 | 0.01 | 70 | 1014.0 |
| 20260507142703 | 59 | 26 | 2.0 | 6.0 | 0.00 | 0.18 | 0.01 | 71 | 1013.9 |
| 20260507142618 | 59 | 24 | 2.0 | 6.0 | 0.00 | 0.18 | 0.01 | 71 | 1013.9 |
| 20260507142603 | 59 | 23 | 2.0 | 6.0 | 0.00 | 0.18 | 0.01 | 71 | 1013.9 |
| 20260507142503 | 59 | 20 | 2.0 | 6.0 | 0.00 | 0.18 | 0.01 | 71 | 1013.9 |
| 20260507142306 | 59 | 20 | 2.0 | 6.0 | 0.00 | 0.18 | 0.01 | 72 | 1013.9 |
| 20260507142204 | 59 | 18 | 2.0 | 6.0 | 0.00 | 0.18 | 0.01 | 71 | 1013.8 |
| 20260507142117 | 59 | 16 | 2.0 | 6.0 | 0.00 | 0.18 | 0.01 | 74 | 1013.8 |
| 20260507142104 | 59 | 17 | 2.0 | 6.0 | 0.00 | 0.18 | 0.01 | 74 | 1013.8 |
| 20260507142003 | 59 | 17 | 2.0 | 5.0 | 0.00 | 0.18 | 0.01 | 74 | 1013.8 |
| 20260507141819 | 59 | 19 | 2.0 | 5.0 | 0.00 | 0.18 | 0.01 | 74 | 1013.8 |
| 20260507141803 | 59 | 21 | 2.0 | 5.0 | 0.00 | 0.18 | 0.01 | 74 | 1013.8 |
| 20260507141703 | 59 | 23 | 2.0 | 5.0 | 0.00 | 0.18 | 0.01 | 73 | 1013.7 |
| 20260507141504 | 59 | 28 | 2.0 | 5.0 | 0.00 | 0.18 | 0.01 | 75 | 1013.8 |
| 20260507141403 | 58 | 30 | 2.0 | 5.0 | 0.00 | 0.18 | 0.01 | 75 | 1013.7 |
| 20260507141304 | 58 | 32 | 2.0 | 5.0 | 0.00 | 0.18 | 0.01 | 73 | 1013.7 |
| 20260507141203 | 58 | 30 | 2.0 | 5.0 | 0.00 | 0.18 | 0.01 | 75 | 1013.7 |
| 20260507141003 | 58 | 26 | 2.0 | 5.0 | 0.00 | 0.18 | 0.01 | 73 | 1013.6 |
| 20260507140903 | 58 | 23 | 2.0 | 5.0 | 0.00 | 0.18 | 0.01 | 73 | 1013.7 |
| 20260507140803 | 58 | 16 | 2.0 | 5.0 | 0.00 | 0.18 | 0.01 | 75 | 1013.7 |
| 20260507140704 | 58 | 17 | 2.0 | 5.0 | 0.00 | 0.18 | 0.01 | 74 | 1013.7 |
| 20260507140603 | 58 | 15 | 2.0 | 6.0 | 0.00 | 0.18 | 0.01 | 74 | 1013.8 |
| 20260507140504 | 58 | 14 | 2.0 | 6.0 | 0.00 | 0.18 | 0.01 | 75 | 1013.8 |
| 20260507140403 | 58 | 15 | 2.0 | 6.0 | 0.00 | 0.18 | 0.01 | 74 | 1013.7 |
| 20260507140303 | 58 | 16 | 2.0 | 6.0 | 0.00 | 0.18 | 0.01 | 74 | 1013.7 |
| 20260507140204 | 58 | 18 | 2.0 | 6.0 | 0.00 | 0.18 | 0.01 | 76 | 1013.7 |
| 20260507140004 | 58 | 21 | 2.0 | 6.0 | 0.00 | 0.18 | 0.01 | 76 | 1013.7 |
| 20260507135903 | 58 | 21 | 1.0 | 6.0 | 0.00 | 0.18 | 0.01 | 77 | 1013.7 |
| 20260507135804 | 58 | 24 | 1.0 | 6.0 | 0.00 | 0.18 | 0.01 | 78 | 1013.7 |
| 20260507135704 | 58 | 21 | 1.0 | 6.0 | 0.00 | 0.18 | 0.01 | 79 | 1013.6 |
| 20260507135603 | 58 | 20 | 1.0 | 4.0 | 0.00 | 0.18 | 0.01 | 77 | 1013.6 |
| 20260507135503 | 57 | 23 | 1.0 | 4.0 | 0.00 | 0.18 | 0.01 | 77 | 1013.6 |
| 20260507135403 | 57 | 22 | 1.0 | 4.0 | 0.00 | 0.18 | 0.01 | 78 | 1013.5 |
| 20260507135318 | 57 | 20 | 1.0 | 4.0 | 0.00 | 0.18 | 0.01 | 78 | 1013.5 |
| 20260507135306 | 57 | 20 | 1.0 | 4.0 | 0.00 | 0.18 | 0.01 | 76 | 1013.6 |
| 20260507135218 | 57 | 21 | 1.0 | 6.0 | 0.00 | 0.18 | 0.01 | 78 | 1013.6 |
| 20260507135203 | 57 | 20 | 1.0 | 6.0 | 0.00 | 0.18 | 0.01 | 78 | 1013.6 |
| 20260507134904 | 57 | 8 | 1.0 | 6.0 | 0.00 | 0.18 | 0.01 | 77 | 1013.6 |
| 20260507134803 | 57 | 8 | 2.0 | 6.0 | 0.00 | 0.18 | 0.01 | 76 | 1013.6 |
| 20260507134717 | 57 | 9 | 1.0 | 6.0 | 0.00 | 0.18 | 0.01 | 76 | 1013.6 |
| 20260507134703 | 57 | 9 | 1.0 | 6.0 | 0.00 | 0.18 | 0.01 | 75 | 1013.6 |
| 20260507134603 | 57 | 8 | 1.0 | 6.0 | 0.00 | 0.18 | 0.01 | 75 | 1013.6 |
| 20260507134403 | 57 | 6 | 2.0 | 6.0 | 0.00 | 0.18 | 0.01 | 77 | 1013.6 |
| 20260507134304 | 57 | 16 | 1.0 | 6.0 | 0.00 | 0.18 | 0.01 | 76 | 1013.6 |
| 20260507134204 | 57 | 26 | 1.0 | 3.0 | 0.00 | 0.18 | 0.01 | 79 | 1013.6 |
| 20260507134119 | 57 | 41 | 1.0 | 3.0 | 0.00 | 0.18 | 0.01 | 79 | 1013.6 |
| 20260507134103 | 57 | 45 | 1.0 | 3.0 | 0.00 | 0.18 | 0.01 | 80 | 1013.6 |
| 20260507134003 | 57 | 44 | 2.0 | 3.0 | 0.00 | 0.19 | 0.01 | 80 | 1013.6 |
| 20260507133918 | 57 | 47 | 2.0 | 3.0 | 0.00 | 0.19 | 0.01 | 79 | 1013.5 |
| 20260507133603 | 57 | 43 | 2.0 | 3.0 | 0.00 | 0.19 | 0.01 | 79 | 1013.6 |
| 20260507133503 | 57 | 46 | 1.0 | 3.0 | 0.00 | 0.19 | 0.01 | 79 | 1013.6 |
| 20260507133403 | 57 | 51 | 1.0 | 3.0 | 0.00 | 0.19 | 0.01 | 80 | 1013.6 |
| 20260507133304 | 57 | 41 | 1.0 | 3.0 | 0.00 | 0.19 | 0.01 | 80 | 1013.5 |
| 20260507133203 | 56 | 26 | 1.0 | 4.0 | 0.00 | 0.19 | 0.01 | 80 | 1013.5 |
| 20260507133104 | 56 | 15 | 1.0 | 4.0 | 0.00 | 0.19 | 0.01 | 82 | 1013.6 |
| 20260507133003 | 56 | 15 | 1.0 | 4.0 | 0.00 | 0.19 | 0.01 | 82 | 1013.5 |
| 20260507132904 | 56 | 14 | 1.0 | 4.0 | 0.00 | 0.19 | 0.01 | 83 | 1013.5 |
| 20260507132804 | 56 | 14 | 1.0 | 4.0 | 0.00 | 0.20 | 0.01 | 84 | 1013.5 |
| 20260507132704 | 56 | 23 | 1.0 | 4.0 | 0.00 | 0.20 | 0.01 | 83 | 1013.5 |
| 20260507132604 | 56 | 31 | 1.0 | 4.0 | 0.00 | 0.20 | 0.01 | 83 | 1013.5 |
| 20260507132503 | 56 | 35 | 1.0 | 4.0 | 0.00 | 0.20 | 0.01 | 82 | 1013.5 |
| 20260507132403 | 56 | 40 | 1.0 | 4.0 | 0.00 | 0.20 | 0.01 | 82 | 1013.5 |
| 20260507132307 | 56 | 46 | 1.0 | 4.0 | 0.00 | 0.20 | 0.01 | 83 | 1013.5 |
| 20260507132203 | 56 | 49 | 1.0 | 3.0 | 0.00 | 0.21 | 0.01 | 84 | 1013.5 |
| 20260507132103 | 56 | 47 | 1.0 | 3.0 | 0.00 | 0.21 | 0.01 | 83 | 1013.5 |
| 20260507132003 | 56 | 46 | 1.0 | 3.0 | 0.00 | 0.22 | 0.01 | 83 | 1013.5 |
| 20260507131903 | 56 | 46 | 1.0 | 3.0 | 0.00 | 0.22 | 0.01 | 82 | 1013.5 |
| 20260507131803 | 56 | 48 | 1.0 | 3.0 | 0.00 | 0.23 | 0.01 | 82 | 1013.5 |
| 20260507131703 | 55 | 41 | 1.0 | 3.0 | 0.00 | 0.23 | 0.01 | 82 | 1013.4 |
| 20260507131603 | 55 | 34 | 1.0 | 4.0 | 0.00 | 0.23 | 0.01 | 82 | 1013.4 |
| 20260507131503 | 55 | 30 | 1.0 | 4.0 | 0.00 | 0.24 | 0.01 | 83 | 1013.5 |
| 20260507131404 | 55 | 25 | 1.0 | 4.0 | 0.00 | 0.24 | 0.01 | 83 | 1013.5 |
| 20260507131303 | 55 | 21 | 1.0 | 4.0 | 0.00 | 0.24 | 0.01 | 85 | 1013.5 |
| 20260507131218 | 55 | 18 | 1.0 | 4.0 | 0.00 | 0.24 | 0.01 | 85 | 1013.5 |
| 20260507131203 | 55 | 18 | 1.0 | 4.0 | 0.00 | 0.24 | 0.01 | 86 | 1013.4 |
| 20260507131118 | 55 | 17 | 1.0 | 4.0 | 0.00 | 0.24 | 0.01 | 86 | 1013.4 |
| 20260507131103 | 55 | 18 | 1.0 | 4.0 | 0.00 | 0.24 | 0.01 | 86 | 1013.4 |
| 20260507130803 | 55 | 19 | 2.0 | 5.0 | 0.00 | 0.24 | 0.01 | 84 | 1013.4 |
| 20260507130704 | 55 | 21 | 1.0 | 5.0 | 0.00 | 0.24 | 0.01 | 86 | 1013.5 |
| 20260507130504 | 54 | 29 | 1.0 | 5.0 | 0.00 | 0.25 | 0.01 | 86 | 1013.5 |
| 20260507130404 | 54 | 29 | 1.0 | 5.0 | 0.00 | 0.25 | 0.01 | 87 | 1013.6 |
| 20260507130304 | 54 | 30 | 1.0 | 5.0 | 0.00 | 0.25 | 0.01 | 86 | 1013.6 |
| 20260507130203 | 54 | 30 | 1.0 | 5.0 | 0.00 | 0.25 | 0.01 | 87 | 1013.5 |
| 20260507130005 | 54 | 38 | 1.0 | 5.0 | 0.00 | 0.25 | 0.01 | 88 | 1013.5 |
| 20260507125904 | 54 | 41 | 1.0 | 5.0 | 0.00 | 0.25 | 0.01 | 88 | 1013.5 |
| 20260507125803 | 54 | 42 | 1.0 | 3.0 | 0.00 | 0.25 | 0.01 | 88 | 1013.5 |
| 20260507125703 | 54 | 42 | 1.0 | 3.0 | 0.00 | 0.25 | 0.01 | 89 | 1013.5 |
| 20260507125603 | 54 | 47 | 1.0 | 5.0 | 0.00 | 0.25 | 0.01 | 89 | 1013.5 |
| 20260507125503 | 54 | 43 | 1.0 | 5.0 | 0.00 | 0.25 | 0.01 | 89 | 1013.5 |
| 20260507125403 | 53 | 39 | 1.0 | 5.0 | 0.00 | 0.25 | 0.01 | 89 | 1013.5 |
| 20260507125317 | 53 | 33 | 1.0 | 5.0 | 0.00 | 0.25 | 0.01 | 89 | 1013.5 |
| 20260507125306 | 53 | 32 | 1.0 | 5.0 | 0.00 | 0.25 | 0.01 | 89 | 1013.5 |
| 20260507125203 | 53 | 34 | 1.0 | 5.0 | 0.00 | 0.25 | 0.01 | 89 | 1013.5 |
| 20260507125118 | 53 | 30 | 2.0 | 5.0 | 0.00 | 0.25 | 0.01 | 90 | 1013.5 |
| 20260507125003 | 53 | 29 | 2.0 | 5.0 | 0.00 | 0.25 | 0.01 | 90 | 1013.5 |
| 20260507124818 | 53 | 27 | 1.0 | 5.0 | 0.00 | 0.25 | 0.01 | 90 | 1013.5 |
| 20260507124703 | 53 | 25 | 1.0 | 5.0 | 0.00 | 0.25 | 0.01 | 91 | 1013.5 |
| 20260507124503 | 52 | 18 | 1.0 | 4.0 | 0.00 | 0.25 | 0.01 | 92 | 1013.5 |
| 20260507124416 | 52 | 21 | 1.0 | 4.0 | 0.00 | 0.25 | 0.01 | 92 | 1013.5 |
| 20260507124403 | 52 | 23 | 1.0 | 4.0 | 0.00 | 0.25 | 0.01 | 92 | 1013.5 |
| 20260507124318 | 52 | 27 | 1.0 | 4.0 | 0.00 | 0.25 | 0.01 | 92 | 1013.5 |
| 20260507124303 | 52 | 28 | 1.0 | 4.0 | 0.00 | 0.25 | 0.01 | 93 | 1013.5 |
| 20260507124003 | 52 | 24 | 1.0 | 3.0 | 0.00 | 0.25 | 0.01 | 93 | 1013.5 |
| 20260507123904 | 52 | 23 | 1.0 | 3.0 | 0.00 | 0.25 | 0.01 | 93 | 1013.5 |
| 20260507123804 | 52 | 21 | 1.0 | 3.0 | 0.00 | 0.25 | 0.01 | 94 | 1013.5 |
| 20260507123703 | 52 | 16 | 1.0 | 3.0 | 0.00 | 0.25 | 0.01 | 94 | 1013.4 |
| 20260507123603 | 52 | 16 | 1.0 | 3.0 | 0.00 | 0.25 | 0.01 | 94 | 1013.3 |
| 20260507123503 | 52 | 15 | 1.0 | 3.0 | 0.00 | 0.25 | 0.01 | 94 | 1013.3 |
| 20260507123404 | 51 | 15 | 1.0 | 3.0 | 0.00 | 0.25 | 0.01 | 94 | 1013.3 |
| 20260507123303 | 51 | 19 | 1.0 | 3.0 | 0.00 | 0.25 | 0.01 | 94 | 1013.3 |
| 20260507123103 | 51 | 66 | 1.0 | 3.0 | 0.00 | 0.25 | 0.01 | 94 | 1013.4 |
| 20260507123003 | 51 | 102 | 1.0 | 3.0 | 0.00 | 0.25 | 0.01 | 95 | 1013.4 |
| 20260507122904 | 51 | 138 | 1.0 | 3.0 | 0.00 | 0.25 | 0.01 | 95 | 1013.4 |
| 20260507122803 | 51 | 166 | 1.0 | 3.0 | 0.00 | 0.25 | 0.01 | 95 | 1013.5 |
| 20260507122705 | 51 | 170 | 0.0 | 3.0 | 0.00 | 0.25 | 0.01 | 95 | 1013.5 |
| 20260507122604 | 51 | 176 | 1.0 | 3.0 | 0.00 | 0.25 | 0.01 | 95 | 1013.4 |
| 20260507122503 | 51 | 176 | 0.0 | 3.0 | 0.00 | 0.25 | 0.01 | 95 | 1013.4 |
| 20260507122404 | 51 | 176 | 0.0 | 3.0 | 0.00 | 0.25 | 0.01 | 95 | 1013.5 |
| 20260507122306 | 50 | 176 | 0.0 | 3.0 | 0.00 | 0.25 | 0.01 | 95 | 1013.5 |
| 20260507122204 | 50 | 176 | 0.0 | 2.0 | 0.00 | 0.25 | 0.01 | 95 | 1013.5 |
| 20260507122103 | 50 | 176 | 0.0 | 2.0 | 0.00 | 0.25 | 0.01 | 95 | 1013.4 |
| 20260507122005 | 50 | 176 | 0.0 | 2.0 | 0.00 | 0.25 | 0.01 | 95 | 1013.4 |
| 20260507121703 | 50 | 176 | 0.0 | 2.0 | 0.00 | 0.25 | 0.01 | 95 | 1013.4 |
| 20260507121603 | 50 | 176 | 0.0 | 2.0 | 0.00 | 0.25 | 0.01 | 95 | 1013.5 |
| 20260507121504 | 50 | 0 | 0.0 | 0.0 | 0.00 | 0.25 | 0.01 | 95 | 1013.5 |
| 20260507121304 | 50 | 0 | 0.0 | 0.0 | 0.00 | 0.25 | 0.01 | 95 | 1013.4 |
| 20260507121203 | 50 | 0 | 0.0 | 0.0 | 0.00 | 0.25 | 0.01 | 95 | 1013.4 |
| 20260507121103 | 50 | 0 | 0.0 | 0.0 | 0.00 | 0.25 | 0.01 | 95 | 1013.5 |
| 20260507120903 | 50 | 0 | 0.0 | 0.0 | 0.00 | 0.25 | 0.01 | 95 | 1013.4 |
| 20260507120803 | 50 | 0 | 0.0 | 0.0 | 0.00 | 0.25 | 0.01 | 95 | 1013.3 |
| 20260507120703 | 50 | 0 | 0.0 | 0.0 | 0.00 | 0.25 | 0.01 | 95 | 1013.3 |
| 20260507120603 | 50 | 0 | 0.0 | 0.0 | 0.00 | 0.25 | 0.01 | 95 | 1013.3 |
| 20260507120503 | 50 | 176 | 0.0 | 1.0 | 0.00 | 0.25 | 0.01 | 95 | 1013.4 |
| 20260507120403 | 50 | 176 | 0.0 | 1.0 | 0.00 | 0.25 | 0.01 | 95 | 1013.4 |
| 20260507120303 | 50 | 176 | 0.0 | 2.0 | 0.00 | 0.25 | 0.01 | 95 | 1013.3 |
| 20260507120203 | 50 | 176 | 0.0 | 2.0 | 0.00 | 0.25 | 0.01 | 95 | 1013.3 |
| 20260507120103 | 50 | 176 | 0.0 | 2.0 | 0.00 | 0.25 | 0.01 | 95 | 1013.3 |
| 20260507120004 | 50 | 176 | 0.0 | 2.0 | 0.00 | 0.25 | 0.01 | 95 | 1013.3 |
| 20260507115904 | 50 | 176 | 0.0 | 2.0 | 0.00 | 0.25 | 0.01 | 95 | 1013.3 |
| 20260507115617 | 50 | 176 | 1.0 | 2.0 | 0.00 | 0.25 | 0.01 | 95 | 1013.4 |
| 20260507115603 | 49 | 176 | 1.0 | 2.0 | 0.00 | 0.25 | 0.01 | 95 | 1013.4 |
| 20260507115504 | 49 | 176 | 0.0 | 2.0 | 0.00 | 0.25 | 0.01 | 95 | 1013.4 |
| 20260507115203 | 49 | 176 | 0.0 | 1.0 | 0.00 | 0.25 | 0.01 | 95 | 1013.3 |
| 20260507115103 | 49 | 176 | 0.0 | 1.0 | 0.00 | 0.25 | 0.01 | 95 | 1013.3 |
| 20260507115004 | 49 | 176 | 0.0 | 1.0 | 0.00 | 0.25 | 0.01 | 95 | 1013.3 |
| 20260507114903 | 49 | 176 | 0.0 | 2.0 | 0.00 | 0.25 | 0.01 | 94 | 1013.3 |
| 20260507114803 | 49 | 176 | 0.0 | 2.0 | 0.00 | 0.25 | 0.01 | 95 | 1013.3 |
| 20260507114703 | 49 | 176 | 0.0 | 2.0 | 0.00 | 0.25 | 0.01 | 94 | 1013.2 |
| 20260507114604 | 49 | 176 | 0.0 | 2.0 | 0.00 | 0.25 | 0.01 | 94 | 1013.2 |
| 20260507114503 | 49 | 176 | 0.0 | 2.0 | 0.00 | 0.25 | 0.01 | 94 | 1013.3 |
| 20260507114403 | 49 | 176 | 0.0 | 2.0 | 0.00 | 0.25 | 0.01 | 94 | 1013.3 |
| 20260507114303 | 49 | 176 | 0.0 | 2.0 | 0.00 | 0.25 | 0.01 | 94 | 1013.3 |
| 20260507114219 | 49 | 176 | 0.0 | 2.0 | 0.00 | 0.25 | 0.01 | 94 | 1013.3 |
| 20260507114103 | 49 | 176 | 0.0 | 2.0 | 0.00 | 0.25 | 0.01 | 94 | 1013.3 |
| 20260507113904 | 49 | 0 | 0.0 | 0.0 | 0.00 | 0.25 | 0.01 | 94 | 1013.2 |
| 20260507113803 | 49 | 0 | 0.0 | 0.0 | 0.00 | 0.25 | 0.01 | 94 | 1013.2 |
| 20260507113704 | 49 | 0 | 0.0 | 0.0 | 0.00 | 0.25 | 0.01 | 94 | 1013.2 |
| 20260507113603 | 49 | 0 | 0.0 | 0.0 | 0.00 | 0.25 | 0.01 | 94 | 1013.2 |
| 20260507113503 | 49 | 0 | 0.0 | 0.0 | 0.00 | 0.25 | 0.01 | 94 | 1013.2 |
| 20260507113403 | 49 | 0 | 0.0 | 0.0 | 0.00 | 0.25 | 0.01 | 94 | 1013.1 |
| 20260507113304 | 49 | 0 | 0.0 | 0.0 | 0.00 | 0.25 | 0.01 | 94 | 1013.1 |
| 20260507113203 | 49 | 0 | 0.0 | 0.0 | 0.00 | 0.25 | 0.01 | 94 | 1013.0 |
| 20260507113104 | 49 | 0 | 0.0 | 0.0 | 0.00 | 0.25 | 0.01 | 94 | 1013.0 |
| 20260507113005 | 49 | 0 | 0.0 | 0.0 | 0.00 | 0.25 | 0.01 | 94 | 1013.0 |
| 20260507112904 | 49 | 0 | 0.0 | 0.0 | 0.00 | 0.25 | 0.01 | 94 | 1013.1 |
| 20260507112804 | 49 | 0 | 0.0 | 0.0 | 0.00 | 0.25 | 0.01 | 94 | 1013.1 |
| 20260507112703 | 49 | 0 | 0.0 | 0.0 | 0.00 | 0.25 | 0.01 | 94 | 1013.0 |
| 20260507112603 | 49 | 0 | 0.0 | 0.0 | 0.00 | 0.25 | 0.01 | 94 | 1013.0 |
| 20260507112504 | 49 | 0 | 0.0 | 0.0 | 0.00 | 0.25 | 0.01 | 94 | 1012.9 |
| 20260507112403 | 49 | 0 | 0.0 | 0.0 | 0.00 | 0.25 | 0.01 | 94 | 1012.9 |
| 20260507112204 | 49 | 0 | 0.0 | 0.0 | 0.00 | 0.25 | 0.01 | 94 | 1012.8 |
| 20260507112103 | 49 | 0 | 0.0 | 0.0 | 0.00 | 0.25 | 0.01 | 94 | 1012.8 |
| 20260507112004 | 49 | 0 | 0.0 | 0.0 | 0.00 | 0.25 | 0.01 | 94 | 1012.8 |
| 20260507111803 | 49 | 0 | 0.0 | 0.0 | 0.00 | 0.25 | 0.01 | 94 | 1012.8 |
| 20260507111703 | 49 | 0 | 0.0 | 0.0 | 0.00 | 0.25 | 0.01 | 94 | 1012.7 |
| 20260507111604 | 49 | 0 | 0.0 | 0.0 | 0.00 | 0.25 | 0.01 | 94 | 1012.7 |
| 20260507111506 | 49 | 0 | 0.0 | 0.0 | 0.00 | 0.25 | 0.01 | 94 | 1012.7 |
| 20260507111303 | 49 | 0 | 0.0 | 0.0 | 0.00 | 0.25 | 0.01 | 94 | 1012.6 |
| 20260507111217 | 49 | 0 | 0.0 | 0.0 | 0.00 | 0.25 | 0.01 | 94 | 1012.6 |
| 20260507111204 | 50 | 0 | 0.0 | 0.0 | 0.00 | 0.25 | 0.01 | 94 | 1012.6 |
| 20260507111104 | 50 | 0 | 0.0 | 0.0 | 0.00 | 0.25 | 0.01 | 94 | 1012.6 |
| 20260507110904 | 50 | 0 | 0.0 | 0.0 | 0.00 | 0.25 | 0.01 | 94 | 1012.6 |
| 20260507110804 | 50 | 0 | 0.0 | 0.0 | 0.00 | 0.25 | 0.01 | 94 | 1012.6 |
| 20260507110703 | 50 | 0 | 0.0 | 0.0 | 0.00 | 0.25 | 0.01 | 94 | 1012.6 |
| 20260507110603 | 50 | 0 | 0.0 | 0.0 | 0.00 | 0.25 | 0.01 | 94 | 1012.6 |
| 20260507110503 | 50 | 0 | 0.0 | 0.0 | 0.00 | 0.25 | 0.01 | 94 | 1012.6 |
| 20260507110203 | 50 | 176 | 0.0 | 1.0 | 0.00 | 0.25 | 0.01 | 94 | 1012.5 |
| 20260507110103 | 50 | 176 | 0.0 | 1.0 | 0.00 | 0.25 | 0.01 | 94 | 1012.5 |
| 20260507110003 | 50 | 176 | 0.0 | 1.0 | 0.00 | 0.25 | 0.01 | 94 | 1012.5 |
| 20260507105904 | 50 | 176 | 0.0 | 1.0 | 0.00 | 0.25 | 0.01 | 94 | 1012.4 |
| 20260507105804 | 50 | 176 | 0.0 | 1.0 | 0.00 | 0.25 | 0.01 | 94 | 1012.4 |
| 20260507105703 | 50 | 176 | 0.0 | 1.0 | 0.00 | 0.25 | 0.01 | 94 | 1012.4 |
| 20260507105603 | 50 | 176 | 0.0 | 1.0 | 0.00 | 0.25 | 0.01 | 94 | 1012.3 |
| 20260507105504 | 50 | 176 | 0.0 | 1.0 | 0.00 | 0.26 | 0.01 | 94 | 1012.3 |
| 20260507105403 | 50 | 176 | 0.0 | 1.0 | 0.00 | 0.27 | 0.01 | 94 | 1012.2 |
| 20260507105306 | 50 | 176 | 0.0 | 1.0 | 0.00 | 0.30 | 0.01 | 94 | 1012.2 |
| 20260507105203 | 50 | 176 | 0.0 | 1.0 | 0.00 | 0.30 | 0.01 | 94 | 1012.2 |
| 20260507105103 | 50 | 176 | 0.0 | 1.0 | 0.00 | 0.31 | 0.01 | 94 | 1012.2 |
| 20260507105004 | 50 | 176 | 0.0 | 1.0 | 0.00 | 0.31 | 0.01 | 94 | 1012.2 |
| 20260507104704 | 50 | 176 | 0.0 | 1.0 | 0.00 | 0.32 | 0.01 | 94 | 1012.2 |
| 20260507104603 | 50 | 176 | 0.0 | 1.0 | 0.00 | 0.32 | 0.01 | 94 | 1012.2 |
| 20260507104504 | 50 | 176 | 0.0 | 1.0 | 0.00 | 0.32 | 0.01 | 94 | 1012.2 |
| 20260507104403 | 50 | 176 | 0.0 | 3.0 | 0.00 | 0.33 | 0.01 | 94 | 1012.2 |
| 20260507104316 | 50 | 176 | 0.0 | 3.0 | 0.00 | 0.33 | 0.01 | 94 | 1012.2 |
| 20260507104204 | 50 | 176 | 0.0 | 3.0 | 0.00 | 0.33 | 0.01 | 94 | 1012.2 |
| 20260507104004 | 50 | 176 | 1.0 | 3.0 | 0.00 | 0.33 | 0.01 | 94 | 1012.3 |
| 20260507103904 | 50 | 176 | 0.0 | 3.0 | 0.00 | 0.33 | 0.01 | 94 | 1012.3 |
| 20260507103804 | 50 | 176 | 0.0 | 3.0 | 0.00 | 0.33 | 0.01 | 95 | 1012.3 |
| 20260507103603 | 50 | 176 | 0.0 | 3.0 | 0.00 | 0.34 | 0.01 | 95 | 1012.2 |
| 20260507103503 | 50 | 176 | 0.0 | 3.0 | 0.00 | 0.35 | 0.01 | 95 | 1012.3 |
| 20260507103303 | 50 | 176 | 0.0 | 2.0 | 0.00 | 0.36 | 0.01 | 95 | 1012.1 |
| 20260507103217 | 51 | 176 | 0.0 | 2.0 | 0.00 | 0.37 | 0.01 | 95 | 1012.1 |
| 20260507103203 | 51 | 176 | 0.0 | 2.0 | 0.00 | 0.37 | 0.01 | 95 | 1012.0 |
| 20260507103103 | 51 | 176 | 0.0 | 2.0 | 0.00 | 0.37 | 0.01 | 95 | 1012.0 |
| 20260507102917 | 51 | 176 | 0.0 | 2.0 | 0.00 | 0.37 | 0.01 | 95 | 1012.0 |
| 20260507102803 | 51 | 176 | 0.0 | 2.0 | 0.00 | 0.37 | 0.01 | 95 | 1012.0 |
| 20260507102604 | 51 | 176 | 0.0 | 1.0 | 0.00 | 0.37 | 0.01 | 95 | 1012.0 |
| 20260507102503 | 51 | 176 | 0.0 | 1.0 | 0.00 | 0.37 | 0.01 | 95 | 1012.0 |
| 20260507102306 | 51 | 176 | 0.0 | 2.0 | 0.00 | 0.37 | 0.01 | 95 | 1012.0 |
| 20260507102203 | 51 | 176 | 0.0 | 2.0 | 0.00 | 0.37 | 0.01 | 95 | 1012.1 |
| 20260507102103 | 51 | 176 | 0.0 | 2.0 | 0.00 | 0.37 | 0.01 | 94 | 1012.1 |
| 20260507102006 | 51 | 176 | 0.0 | 2.0 | 0.00 | 0.37 | 0.01 | 94 | 1012.2 |
| 20260507101903 | 51 | 176 | 0.0 | 2.0 | 0.00 | 0.37 | 0.01 | 94 | 1012.1 |
| 20260507101803 | 51 | 176 | 0.0 | 2.0 | 0.00 | 0.37 | 0.01 | 94 | 1012.1 |
| 20260507101703 | 51 | 176 | 0.0 | 2.0 | 0.00 | 0.37 | 0.01 | 94 | 1012.0 |
| 20260507101604 | 51 | 176 | 0.0 | 2.0 | 0.00 | 0.37 | 0.01 | 94 | 1012.0 |
| 20260507101504 | 51 | 176 | 0.0 | 2.0 | 0.00 | 0.37 | 0.01 | 94 | 1012.1 |
| 20260507101403 | 51 | 176 | 0.0 | 2.0 | 0.00 | 0.37 | 0.01 | 94 | 1012.1 |
| 20260507101318 | 51 | 176 | 0.0 | 2.0 | 0.00 | 0.37 | 0.01 | 94 | 1012.1 |
| 20260507101203 | 51 | 176 | 0.0 | 2.0 | 0.00 | 0.37 | 0.01 | 94 | 1012.2 |
| 20260507101003 | 51 | 175 | 0.0 | 1.0 | 0.00 | 0.37 | 0.01 | 94 | 1012.2 |
| 20260507100903 | 51 | 175 | 0.0 | 1.0 | 0.00 | 0.37 | 0.01 | 94 | 1012.1 |
| 20260507100804 | 51 | 175 | 0.0 | 1.0 | 0.00 | 0.37 | 0.01 | 94 | 1012.1 |
| 20260507100703 | 51 | 170 | 0.0 | 1.0 | 0.00 | 0.37 | 0.01 | 94 | 1012.2 |
| 20260507100603 | 51 | 0 | 0.0 | 0.0 | 0.00 | 0.37 | 0.01 | 94 | 1012.2 |
| 20260507100504 | 51 | 0 | 0.0 | 0.0 | 0.00 | 0.37 | 0.01 | 94 | 1012.0 |
| 20260507100404 | 51 | 170 | 0.0 | 1.0 | 0.00 | 0.37 | 0.01 | 94 | 1012.1 |
| 20260507100303 | 51 | 170 | 0.0 | 1.0 | 0.00 | 0.37 | 0.01 | 95 | 1012.1 |
| 20260507100203 | 51 | 170 | 0.0 | 1.0 | 0.00 | 0.37 | 0.01 | 94 | 1012.1 |
| 20260507100103 | 51 | 170 | 0.0 | 1.0 | 0.00 | 0.37 | 0.01 | 95 | 1012.1 |
| 20260507095903 | 51 | 170 | 0.0 | 1.0 | 0.00 | 0.37 | 0.01 | 95 | 1012.0 |
| 20260507095804 | 51 | 170 | 0.0 | 1.0 | 0.00 | 0.37 | 0.01 | 95 | 1012.0 |
| 20260507095703 | 51 | 170 | 0.0 | 1.0 | 0.00 | 0.37 | 0.01 | 95 | 1011.9 |
| 20260507095603 | 51 | 170 | 0.0 | 1.0 | 0.00 | 0.37 | 0.01 | 95 | 1011.9 |
| 20260507095503 | 51 | 170 | 0.0 | 1.0 | 0.00 | 0.37 | 0.01 | 95 | 1011.9 |
| 20260507095403 | 51 | 0 | 0.0 | 0.0 | 0.00 | 0.37 | 0.01 | 95 | 1011.9 |
| 20260507095306 | 51 | 0 | 0.0 | 0.0 | 0.00 | 0.37 | 0.01 | 95 | 1011.9 |
| 20260507095204 | 51 | 170 | 0.0 | 1.0 | 0.00 | 0.37 | 0.01 | 95 | 1011.9 |
| 20260507095103 | 51 | 170 | 0.0 | 1.0 | 0.00 | 0.37 | 0.01 | 95 | 1012.0 |
| 20260507095004 | 51 | 170 | 0.0 | 1.0 | 0.00 | 0.37 | 0.01 | 95 | 1012.0 |
| 20260507094903 | 51 | 170 | 0.0 | 1.0 | 0.00 | 0.38 | 0.01 | 95 | 1012.0 |
| 20260507094703 | 51 | 170 | 0.0 | 1.0 | 0.00 | 0.38 | 0.01 | 95 | 1012.2 |
| 20260507094603 | 51 | 170 | 0.0 | 1.0 | 0.00 | 0.38 | 0.01 | 95 | 1012.2 |
| 20260507094404 | 51 | 170 | 0.0 | 1.0 | 0.00 | 0.38 | 0.01 | 95 | 1012.2 |
| 20260507094303 | 51 | 170 | 0.0 | 1.0 | 0.00 | 0.38 | 0.01 | 95 | 1012.3 |
| 20260507094203 | 51 | 170 | 0.0 | 1.0 | 0.00 | 0.39 | 0.01 | 95 | 1012.3 |
| 20260507094104 | 51 | 170 | 0.0 | 1.0 | 0.00 | 0.39 | 0.01 | 95 | 1012.2 |
| 20260507094005 | 51 | 170 | 0.0 | 1.0 | 0.00 | 0.41 | 0.01 | 95 | 1012.2 |
| 20260507093803 | 51 | 170 | 0.0 | 1.0 | 0.00 | 0.44 | 0.01 | 95 | 1012.0 |
| 20260507093704 | 51 | 170 | 0.0 | 1.0 | 0.00 | 0.45 | 0.01 | 95 | 1012.0 |
| 20260507093618 | 52 | 170 | 0.0 | 1.0 | 0.00 | 0.46 | 0.01 | 95 | 1012.1 |
| 20260507093604 | 51 | 170 | 0.0 | 1.0 | 0.00 | 0.46 | 0.01 | 95 | 1012.1 |
| 20260507093517 | 51 | 170 | 0.0 | 1.0 | 0.00 | 0.47 | 0.01 | 95 | 1012.1 |
| 20260507093504 | 52 | 170 | 0.0 | 1.0 | 0.00 | 0.47 | 0.01 | 95 | 1012.1 |
| 20260507093203 | 51 | 170 | 0.0 | 1.0 | 0.00 | 0.50 | 0.01 | 95 | 1012.2 |
| 20260507093103 | 52 | 170 | 0.0 | 1.0 | 0.00 | 0.51 | 0.01 | 95 | 1012.2 |
| 20260507093004 | 52 | 170 | 0.0 | 1.0 | 0.00 | 0.51 | 0.01 | 95 | 1012.2 |
| 20260507092904 | 52 | 170 | 0.0 | 1.0 | 0.00 | 0.52 | 0.01 | 95 | 1012.2 |
| 20260507092804 | 52 | 170 | 0.0 | 1.0 | 0.00 | 0.52 | 0.01 | 95 | 1012.2 |
| 20260507092703 | 52 | 170 | 0.0 | 1.0 | 0.00 | 0.52 | 0.01 | 95 | 1012.2 |
| 20260507092603 | 52 | 170 | 0.0 | 1.0 | 0.00 | 0.53 | 0.01 | 95 | 1012.3 |
| 20260507092503 | 52 | 170 | 0.0 | 1.0 | 0.00 | 0.53 | 0.01 | 95 | 1012.3 |
| 20260507092403 | 52 | 170 | 0.0 | 1.0 | 0.00 | 0.53 | 0.01 | 95 | 1012.3 |
| 20260507092307 | 52 | 170 | 0.0 | 1.0 | 0.00 | 0.53 | 0.01 | 95 | 1012.2 |
| 20260507092204 | 52 | 170 | 0.0 | 1.0 | 0.00 | 0.53 | 0.01 | 95 | 1012.2 |
| 20260507092103 | 52 | 170 | 0.0 | 1.0 | 0.00 | 0.53 | 0.01 | 95 | 1012.2 |
| 20260507092003 | 52 | 170 | 0.0 | 1.0 | 0.00 | 0.54 | 0.01 | 95 | 1012.2 |
| 20260507091804 | 52 | 170 | 0.0 | 1.0 | 0.00 | 0.54 | 0.01 | 95 | 1012.2 |
| 20260507091703 | 52 | 170 | 0.0 | 1.0 | 0.00 | 0.54 | 0.01 | 95 | 1012.2 |
| 20260507091603 | 52 | 170 | 0.0 | 2.0 | 0.00 | 0.55 | 0.01 | 95 | 1012.2 |
| 20260507091503 | 52 | 170 | 0.0 | 2.0 | 0.00 | 0.55 | 0.01 | 95 | 1012.2 |
| 20260507091404 | 52 | 170 | 0.0 | 2.0 | 0.00 | 0.55 | 0.01 | 95 | 1012.2 |
| 20260507091303 | 52 | 170 | 0.0 | 2.0 | 0.00 | 0.55 | 0.01 | 95 | 1012.2 |
| 20260507091204 | 52 | 170 | 0.0 | 2.0 | 0.00 | 0.55 | 0.01 | 95 | 1012.2 |
| 20260507091103 | 52 | 170 | 0.0 | 2.0 | 0.00 | 0.55 | 0.01 | 95 | 1012.0 |
| 20260507091004 | 52 | 170 | 0.0 | 2.0 | 0.00 | 0.56 | 0.01 | 95 | 1012.0 |
| 20260507090903 | 52 | 170 | 0.0 | 2.0 | 0.00 | 0.56 | 0.01 | 95 | 1012.0 |
| 20260507090803 | 52 | 170 | 0.0 | 2.0 | 0.00 | 0.56 | 0.01 | 95 | 1011.9 |
| 20260507090704 | 52 | 170 | 0.0 | 2.0 | 0.00 | 0.56 | 0.01 | 95 | 1011.9 |
| 20260507090603 | 52 | 170 | 0.0 | 2.0 | 0.00 | 0.56 | 0.01 | 95 | 1011.9 |
| 20260507090504 | 52 | 170 | 0.0 | 2.0 | 0.00 | 0.56 | 0.01 | 95 | 1011.9 |
| 20260507090403 | 52 | 170 | 0.0 | 2.0 | 0.00 | 0.56 | 0.01 | 95 | 1011.9 |
| 20260507090304 | 52 | 170 | 0.0 | 2.0 | 0.00 | 0.56 | 0.01 | 95 | 1012.1 |
| 20260507090203 | 52 | 170 | 0.0 | 2.0 | 0.00 | 0.56 | 0.01 | 95 | 1012.1 |
| 20260507090103 | 52 | 170 | 0.0 | 2.0 | 0.00 | 0.56 | 0.01 | 95 | 1012.1 |
| 20260507085903 | 52 | 170 | 0.0 | 2.0 | 0.00 | 0.57 | 0.01 | 95 | 1012.0 |
| 20260507085803 | 52 | 170 | 0.0 | 2.0 | 0.00 | 0.57 | 0.01 | 95 | 1012.0 |
| 20260507085703 | 52 | 170 | 1.0 | 2.0 | 0.00 | 0.57 | 0.01 | 95 | 1012.0 |
| 20260507085604 | 52 | 170 | 1.0 | 3.0 | 0.00 | 0.57 | 0.01 | 95 | 1012.0 |
| 20260507085503 | 52 | 170 | 0.0 | 3.0 | 0.00 | 0.57 | 0.01 | 95 | 1012.1 |
| 20260507085404 | 52 | 170 | 0.0 | 3.0 | 0.00 | 0.57 | 0.01 | 95 | 1012.1 |
| 20260507085306 | 52 | 170 | 0.0 | 3.0 | 0.00 | 0.57 | 0.01 | 95 | 1012.0 |
| 20260507085203 | 52 | 170 | 0.0 | 3.0 | 0.00 | 0.57 | 0.01 | 95 | 1012.0 |
| 20260507085104 | 52 | 170 | 0.0 | 3.0 | 0.00 | 0.57 | 0.01 | 95 | 1012.0 |
| 20260507084903 | 52 | 170 | 0.0 | 3.0 | 0.00 | 0.57 | 0.01 | 95 | 1011.9 |
| 20260507084803 | 52 | 170 | 0.0 | 3.0 | 0.00 | 0.57 | 0.01 | 95 | 1011.9 |
| 20260507084704 | 52 | 170 | 0.0 | 3.0 | 0.00 | 0.57 | 0.01 | 95 | 1011.8 |
| 20260507084604 | 52 | 0 | 0.0 | 0.0 | 0.00 | 0.57 | 0.01 | 95 | 1011.8 |
| 20260507084403 | 52 | 0 | 0.0 | 0.0 | 0.00 | 0.57 | 0.01 | 95 | 1011.8 |
| 20260507084303 | 52 | 0 | 0.0 | 0.0 | 0.00 | 0.57 | 0.01 | 95 | 1011.8 |
| 20260507084203 | 52 | 0 | 0.0 | 0.0 | 0.00 | 0.57 | 0.01 | 95 | 1011.8 |
| 20260507084103 | 52 | 0 | 0.0 | 0.0 | 0.00 | 0.57 | 0.01 | 95 | 1011.8 |
| 20260507084004 | 52 | 0 | 0.0 | 0.0 | 0.00 | 0.57 | 0.01 | 95 | 1011.8 |
| 20260507083703 | 52 | 0 | 0.0 | 0.0 | 0.00 | 0.57 | 0.01 | 95 | 1012.1 |
| 20260507083604 | 52 | 0 | 0.0 | 0.0 | 0.00 | 0.57 | 0.01 | 95 | 1012.1 |
| 20260507083403 | 52 | 0 | 0.0 | 0.0 | 0.00 | 0.57 | 0.01 | 95 | 1012.0 |
| 20260507083303 | 52 | 0 | 0.0 | 0.0 | 0.00 | 0.57 | 0.01 | 95 | 1012.0 |
| 20260507083203 | 52 | 0 | 0.0 | 0.0 | 0.00 | 0.57 | 0.01 | 95 | 1011.9 |
| 20260507083103 | 52 | 0 | 0.0 | 0.0 | 0.00 | 0.57 | 0.01 | 95 | 1011.9 |
| 20260507083005 | 52 | 0 | 0.0 | 0.0 | 0.00 | 0.57 | 0.01 | 95 | 1011.9 |
| 20260507082903 | 52 | 0 | 0.0 | 0.0 | 0.00 | 0.57 | 0.01 | 95 | 1011.9 |
| 20260507082803 | 52 | 0 | 0.0 | 0.0 | 0.00 | 0.57 | 0.01 | 95 | 1011.9 |
| 20260507082703 | 52 | 0 | 0.0 | 0.0 | 0.00 | 0.57 | 0.01 | 95 | 1011.9 |
| 20260507082604 | 52 | 0 | 0.0 | 0.0 | 0.00 | 0.57 | 0.01 | 95 | 1012.0 |
| 20260507082503 | 52 | 0 | 0.0 | 0.0 | 0.00 | 0.57 | 0.01 | 95 | 1012.0 |
| 20260507082404 | 52 | 0 | 0.0 | 0.0 | 0.00 | 0.57 | 0.01 | 95 | 1012.0 |
| 20260507082306 | 52 | 0 | 0.0 | 0.0 | 0.00 | 0.57 | 0.01 | 95 | 1012.0 |
| 20260507082203 | 52 | 0 | 0.0 | 0.0 | 0.00 | 0.57 | 0.01 | 95 | 1011.9 |
| 20260507082103 | 52 | 0 | 0.0 | 0.0 | 0.00 | 0.57 | 0.01 | 95 | 1012.0 |
| 20260507081904 | 52 | 0 | 0.0 | 0.0 | 0.00 | 0.57 | 0.01 | 95 | 1012.2 |
| 20260507081803 | 52 | 0 | 0.0 | 0.0 | 0.01 | 0.57 | 0.01 | 95 | 1012.3 |
| 20260507081703 | 52 | 0 | 0.0 | 0.0 | 0.01 | 0.57 | 0.01 | 95 | 1012.3 |
| 20260507081603 | 52 | 0 | 0.0 | 0.0 | 0.01 | 0.57 | 0.01 | 95 | 1012.3 |
| 20260507081503 | 52 | 0 | 0.0 | 0.0 | 0.01 | 0.57 | 0.01 | 95 | 1012.3 |
| 20260507081304 | 52 | 0 | 0.0 | 0.0 | 0.01 | 0.57 | 0.01 | 95 | 1012.2 |
| 20260507081204 | 52 | 0 | 0.0 | 0.0 | 0.01 | 0.57 | 0.01 | 95 | 1012.2 |
| 20260507081103 | 52 | 0 | 0.0 | 0.0 | 0.01 | 0.57 | 0.01 | 95 | 1012.1 |
| 20260507080904 | 52 | 0 | 0.0 | 0.0 | 0.01 | 0.57 | 0.01 | 95 | 1012.2 |
| 20260507080803 | 52 | 0 | 0.0 | 0.0 | 0.01 | 0.57 | 0.01 | 95 | 1012.1 |
| 20260507080703 | 52 | 0 | 0.0 | 0.0 | 0.01 | 0.57 | 0.01 | 95 | 1012.1 |
| 20260507080603 | 52 | 0 | 0.0 | 0.0 | 0.01 | 0.57 | 0.01 | 95 | 1012.1 |
| 20260507080504 | 52 | 0 | 0.0 | 0.0 | 0.01 | 0.57 | 0.01 | 95 | 1012.1 |
| 20260507080404 | 52 | 0 | 0.0 | 0.0 | 0.01 | 0.57 | 0.01 | 95 | 1012.0 |
| 20260507080303 | 52 | 0 | 0.0 | 0.0 | 0.01 | 0.57 | 0.01 | 95 | 1012.1 |
| 20260507080203 | 52 | 0 | 0.0 | 0.0 | 0.01 | 0.57 | 0.01 | 95 | 1012.1 |
| 20260507075903 | 52 | 0 | 0.0 | 0.0 | 0.01 | 0.57 | 0.01 | 95 | 1012.0 |
| 20260507075803 | 53 | 0 | 0.0 | 0.0 | 0.01 | 0.57 | 0.01 | 95 | 1012.0 |
| 20260507075703 | 53 | 0 | 0.0 | 0.0 | 0.01 | 0.57 | 0.01 | 95 | 1012.0 |
| 20260507075603 | 53 | 0 | 0.0 | 0.0 | 0.01 | 0.57 | 0.01 | 95 | 1012.0 |
| 20260507075504 | 53 | 0 | 0.0 | 0.0 | 0.01 | 0.57 | 0.01 | 95 | 1012.0 |
| 20260507075306 | 53 | 0 | 0.0 | 0.0 | 0.01 | 0.57 | 0.01 | 95 | 1012.1 |
| 20260507075203 | 53 | 0 | 0.0 | 0.0 | 0.01 | 0.57 | 0.01 | 95 | 1012.1 |
| 20260507075103 | 53 | 0 | 0.0 | 0.0 | 0.01 | 0.57 | 0.01 | 95 | 1012.2 |
| 20260507075003 | 53 | 0 | 0.0 | 0.0 | 0.01 | 0.57 | 0.01 | 95 | 1012.2 |
| 20260507074903 | 53 | 0 | 0.0 | 0.0 | 0.01 | 0.57 | 0.01 | 95 | 1012.2 |
| 20260507074803 | 53 | 0 | 0.0 | 0.0 | 0.01 | 0.57 | 0.01 | 95 | 1012.2 |
| 20260507074704 | 53 | 0 | 0.0 | 0.0 | 0.01 | 0.57 | 0.01 | 95 | 1012.2 |
| 20260507074604 | 53 | 0 | 0.0 | 0.0 | 0.01 | 0.57 | 0.01 | 95 | 1012.2 |
| 20260507074503 | 53 | 0 | 0.0 | 0.0 | 0.01 | 0.57 | 0.01 | 95 | 1012.2 |
| 20260507074404 | 53 | 0 | 0.0 | 0.0 | 0.01 | 0.57 | 0.01 | 95 | 1012.2 |
| 20260507074304 | 53 | 0 | 0.0 | 0.0 | 0.01 | 0.57 | 0.01 | 95 | 1012.3 |
| 20260507074203 | 53 | 0 | 0.0 | 0.0 | 0.01 | 0.57 | 0.01 | 95 | 1012.3 |
| 20260507074104 | 53 | 0 | 0.0 | 0.0 | 0.01 | 0.57 | 0.01 | 95 | 1012.3 |
| 20260507073904 | 53 | 0 | 0.0 | 0.0 | 0.01 | 0.57 | 0.01 | 95 | 1012.2 |
| 20260507073803 | 53 | 0 | 0.0 | 0.0 | 0.01 | 0.57 | 0.01 | 95 | 1012.2 |
| 20260507073704 | 53 | 0 | 0.0 | 0.0 | 0.01 | 0.57 | 0.01 | 95 | 1012.3 |
| 20260507073603 | 53 | 0 | 0.0 | 0.0 | 0.01 | 0.57 | 0.01 | 95 | 1012.3 |
| 20260507073503 | 53 | 0 | 0.0 | 0.0 | 0.01 | 0.57 | 0.01 | 95 | 1012.3 |
| 20260507073403 | 53 | 0 | 0.0 | 0.0 | 0.01 | 0.57 | 0.01 | 95 | 1012.3 |
| 20260507073304 | 53 | 0 | 0.0 | 0.0 | 0.01 | 0.57 | 0.01 | 95 | 1012.4 |
| 20260507073203 | 53 | 0 | 0.0 | 0.0 | 0.01 | 0.57 | 0.01 | 95 | 1012.4 |
| 20260507073103 | 53 | 0 | 0.0 | 0.0 | 0.01 | 0.57 | 0.01 | 95 | 1012.4 |
| 20260507073003 | 53 | 0 | 0.0 | 0.0 | 0.01 | 0.57 | 0.01 | 95 | 1012.3 |
| 20260507072904 | 53 | 0 | 0.0 | 0.0 | 0.01 | 0.57 | 0.01 | 95 | 1012.2 |
| 20260507072804 | 53 | 0 | 0.0 | 0.0 | 0.01 | 0.57 | 0.01 | 95 | 1012.2 |
| 20260507072703 | 53 | 0 | 0.0 | 0.0 | 0.01 | 0.57 | 0.01 | 95 | 1012.3 |
| 20260507072603 | 53 | 0 | 0.0 | 0.0 | 0.01 | 0.57 | 0.01 | 95 | 1012.3 |
| 20260507072503 | 53 | 0 | 0.0 | 0.0 | 0.01 | 0.57 | 0.01 | 95 | 1012.1 |
| 20260507072404 | 53 | 0 | 0.0 | 0.0 | 0.01 | 0.57 | 0.01 | 95 | 1012.1 |
| 20260507072306 | 53 | 0 | 0.0 | 0.0 | 0.01 | 0.57 | 0.01 | 95 | 1012.1 |
| 20260507072203 | 53 | 0 | 0.0 | 0.0 | 0.01 | 0.57 | 0.01 | 95 | 1011.9 |
| 20260507072103 | 53 | 0 | 0.0 | 0.0 | 0.01 | 0.57 | 0.01 | 95 | 1011.9 |
| 20260507072003 | 53 | 0 | 0.0 | 0.0 | 0.01 | 0.57 | 0.01 | 95 | 1011.8 |
| 20260507071903 | 53 | 0 | 0.0 | 0.0 | 0.01 | 0.57 | 0.01 | 95 | 1011.8 |
| 20260507071803 | 53 | 0 | 0.0 | 0.0 | 0.00 | 0.56 | 0.00 | 95 | 1011.8 |
| 20260507071719 | 53 | 0 | 0.0 | 0.0 | 0.00 | 0.56 | 0.00 | 95 | 1011.7 |
| 20260507071703 | 53 | 170 | 0.0 | 1.0 | 0.00 | 0.56 | 0.00 | 95 | 1011.7 |
| 20260507071403 | 53 | 170 | 0.0 | 1.0 | 0.00 | 0.56 | 0.00 | 95 | 1012.1 |
| 20260507071304 | 53 | 170 | 0.0 | 1.0 | 0.00 | 0.56 | 0.00 | 95 | 1012.1 |
| 20260507071203 | 53 | 170 | 0.0 | 1.0 | 0.00 | 0.56 | 0.00 | 95 | 1012.2 |
| 20260507071104 | 53 | 170 | 0.0 | 1.0 | 0.00 | 0.56 | 0.00 | 95 | 1012.3 |
| 20260507071003 | 53 | 170 | 0.0 | 1.0 | 0.00 | 0.56 | 0.00 | 95 | 1012.3 |
| 20260507070903 | 53 | 170 | 0.0 | 1.0 | 0.00 | 0.56 | 0.00 | 95 | 1012.3 |
| 20260507070803 | 53 | 170 | 0.0 | 1.0 | 0.00 | 0.56 | 0.00 | 95 | 1012.3 |
| 20260507070703 | 53 | 170 | 0.0 | 1.0 | 0.00 | 0.56 | 0.00 | 95 | 1012.4 |
| 20260507070404 | 53 | 170 | 0.0 | 1.0 | 0.00 | 0.56 | 0.00 | 95 | 1012.4 |
| 20260507070304 | 53 | 170 | 0.0 | 1.0 | 0.00 | 0.56 | 0.00 | 95 | 1012.4 |
| 20260507070203 | 53 | 170 | 0.0 | 1.0 | 0.00 | 0.56 | 0.00 | 95 | 1012.3 |
| 20260507070017 | 53 | 170 | 0.0 | 1.0 | 0.00 | 0.56 | 0.00 | 95 | 1012.2 |
| 20260507065903 | 53 | 0 | 0.0 | 0.0 | 0.00 | 0.56 | 0.00 | 95 | 1012.3 |
| 20260507065704 | 53 | 0 | 0.0 | 0.0 | 0.00 | 0.56 | 0.00 | 95 | 1012.3 |
| 20260507065603 | 53 | 170 | 0.0 | 1.0 | 0.00 | 0.56 | 0.00 | 95 | 1012.3 |
| 20260507065504 | 53 | 170 | 0.0 | 1.0 | 0.00 | 0.56 | 0.00 | 95 | 1012.3 |
| 20260507065305 | 53 | 170 | 0.0 | 1.0 | 0.00 | 0.56 | 0.00 | 95 | 1012.2 |
| 20260507065203 | 53 | 170 | 0.0 | 1.0 | 0.00 | 0.56 | 0.00 | 95 | 1012.2 |
| 20260507065103 | 53 | 170 | 0.0 | 1.0 | 0.00 | 0.56 | 0.00 | 95 | 1012.2 |
| 20260507065003 | 53 | 170 | 0.0 | 1.0 | 0.00 | 0.56 | 0.00 | 95 | 1012.2 |
| 20260507064904 | 53 | 170 | 0.0 | 1.0 | 0.00 | 0.56 | 0.00 | 95 | 1012.3 |
| 20260507064804 | 53 | 170 | 0.0 | 1.0 | 0.00 | 0.56 | 0.00 | 95 | 1012.3 |
| 20260507064703 | 53 | 170 | 0.0 | 1.0 | 0.00 | 0.56 | 0.00 | 95 | 1012.3 |
| 20260507064603 | 53 | 170 | 0.0 | 1.0 | 0.00 | 0.56 | 0.00 | 95 | 1012.2 |
| 20260507064504 | 53 | 170 | 0.0 | 1.0 | 0.00 | 0.56 | 0.00 | 95 | 1012.2 |
| 20260507064403 | 53 | 170 | 0.0 | 1.0 | 0.00 | 0.56 | 0.00 | 95 | 1012.2 |
| 20260507064104 | 53 | 170 | 0.0 | 1.0 | 0.00 | 0.56 | 0.00 | 95 | 1012.3 |
| 20260507064004 | 53 | 170 | 0.0 | 1.0 | 0.00 | 0.56 | 0.00 | 95 | 1012.3 |
| 20260507063903 | 53 | 170 | 0.0 | 1.0 | 0.00 | 0.56 | 0.00 | 95 | 1012.3 |
| 20260507063818 | 53 | 170 | 0.0 | 1.0 | 0.00 | 0.56 | 0.00 | 95 | 1012.4 |
| 20260507063804 | 53 | 0 | 0.0 | 0.0 | 0.00 | 0.56 | 0.00 | 95 | 1012.4 |
| 20260507063504 | 53 | 170 | 0.0 | 1.0 | 0.00 | 0.56 | 0.00 | 95 | 1012.4 |
| 20260507063404 | 53 | 170 | 0.0 | 1.0 | 0.00 | 0.56 | 0.00 | 95 | 1012.4 |
| 20260507063304 | 53 | 170 | 0.0 | 2.0 | 0.00 | 0.56 | 0.00 | 95 | 1012.4 |
| 20260507063203 | 53 | 170 | 0.0 | 2.0 | 0.00 | 0.56 | 0.00 | 95 | 1012.4 |
| 20260507063103 | 53 | 170 | 0.0 | 2.0 | 0.00 | 0.56 | 0.00 | 95 | 1012.3 |
| 20260507063003 | 53 | 170 | 0.0 | 2.0 | 0.00 | 0.56 | 0.00 | 95 | 1012.3 |
| 20260507062903 | 53 | 170 | 0.0 | 2.0 | 0.00 | 0.56 | 0.00 | 95 | 1012.3 |
| 20260507062804 | 53 | 170 | 0.0 | 2.0 | 0.00 | 0.56 | 0.00 | 95 | 1012.1 |
| 20260507062703 | 53 | 170 | 0.0 | 2.0 | 0.00 | 0.56 | 0.00 | 95 | 1012.1 |
| 20260507062604 | 53 | 170 | 0.0 | 2.0 | 0.00 | 0.56 | 0.00 | 95 | 1012.0 |
| 20260507062403 | 53 | 169 | 1.0 | 3.0 | 0.00 | 0.56 | 0.00 | 95 | 1012.0 |
| 20260507062306 | 53 | 169 | 0.0 | 3.0 | 0.00 | 0.56 | 0.00 | 95 | 1012.0 |
| 20260507062203 | 53 | 168 | 0.0 | 3.0 | 0.00 | 0.56 | 0.00 | 95 | 1011.9 |
| 20260507062104 | 53 | 168 | 0.0 | 3.0 | 0.00 | 0.56 | 0.00 | 95 | 1011.9 |
| 20260507062004 | 54 | 168 | 0.0 | 3.0 | 0.00 | 0.56 | 0.00 | 95 | 1011.8 |
| 20260507061903 | 53 | 168 | 0.0 | 3.0 | 0.00 | 0.56 | 0.00 | 95 | 1011.8 |
| 20260507061803 | 53 | 168 | 0.0 | 3.0 | 0.00 | 0.56 | 0.00 | 95 | 1011.8 |
| 20260507061704 | 54 | 168 | 0.0 | 3.0 | 0.00 | 0.56 | 0.00 | 95 | 1011.8 |
| 20260507061603 | 54 | 167 | 0.0 | 3.0 | 0.00 | 0.56 | 0.00 | 95 | 1011.8 |
| 20260507061503 | 54 | 166 | 0.0 | 3.0 | 0.00 | 0.56 | 0.00 | 95 | 1011.9 |
| 20260507061404 | 54 | 0 | 0.0 | 0.0 | 0.00 | 0.56 | 0.00 | 95 | 1011.9 |
| 20260507061303 | 54 | 47 | 0.0 | 1.0 | 0.00 | 0.56 | 0.00 | 95 | 1011.7 |
| 20260507061203 | 54 | 47 | 0.0 | 1.0 | 0.00 | 0.56 | 0.00 | 95 | 1011.7 |
| 20260507061103 | 54 | 47 | 0.0 | 1.0 | 0.00 | 0.56 | 0.00 | 95 | 1011.7 |
| 20260507061004 | 54 | 47 | 0.0 | 1.0 | 0.00 | 0.56 | 0.00 | 95 | 1011.8 |
| 20260507060919 | 54 | 47 | 0.0 | 1.0 | 0.00 | 0.56 | 0.00 | 95 | 1011.8 |
| 20260507060903 | 54 | 47 | 0.0 | 1.0 | 0.00 | 0.56 | 0.00 | 95 | 1012.0 |
| 20260507060803 | 54 | 47 | 0.0 | 1.0 | 0.00 | 0.56 | 0.00 | 95 | 1012.0 |
| 20260507060718 | 54 | 47 | 0.0 | 1.0 | 0.00 | 0.56 | 0.00 | 95 | 1012.1 |
| 20260507060603 | 54 | 47 | 0.0 | 1.0 | 0.00 | 0.56 | 0.00 | 95 | 1012.1 |
| 20260507060418 | 54 | 47 | 0.0 | 1.0 | 0.00 | 0.56 | 0.00 | 95 | 1012.2 |
| 20260507060403 | 54 | 47 | 0.0 | 1.0 | 0.00 | 0.56 | 0.00 | 95 | 1012.3 |
| 20260507060303 | 54 | 47 | 0.0 | 1.0 | 0.00 | 0.56 | 0.00 | 95 | 1012.3 |
| 20260507060004 | 54 | 47 | 0.0 | 1.0 | 0.00 | 0.56 | 0.00 | 95 | 1012.3 |
| 20260507055803 | 54 | 47 | 0.0 | 1.0 | 0.00 | 0.56 | 0.00 | 95 | 1012.2 |
| 20260507055703 | 54 | 47 | 0.0 | 1.0 | 0.00 | 0.56 | 0.00 | 95 | 1012.0 |
| 20260507055603 | 54 | 47 | 0.0 | 1.0 | 0.00 | 0.56 | 0.00 | 95 | 1012.0 |
| 20260507055503 | 54 | 47 | 0.0 | 1.0 | 0.00 | 0.56 | 0.00 | 95 | 1012.0 |
| 20260507055305 | 54 | 47 | 0.0 | 1.0 | 0.00 | 0.56 | 0.00 | 95 | 1012.1 |
| 20260507055204 | 54 | 47 | 0.0 | 1.0 | 0.00 | 0.56 | 0.00 | 95 | 1012.1 |
| 20260507055104 | 54 | 47 | 0.0 | 1.0 | 0.00 | 0.56 | 0.00 | 95 | 1012.2 |
| 20260507055004 | 54 | 47 | 0.0 | 1.0 | 0.00 | 0.56 | 0.00 | 95 | 1012.2 |
| 20260507054903 | 54 | 0 | 0.0 | 0.0 | 0.00 | 0.56 | 0.00 | 95 | 1012.3 |
| 20260507054804 | 54 | 0 | 0.0 | 0.0 | 0.00 | 0.56 | 0.00 | 95 | 1012.3 |
| 20260507054703 | 54 | 0 | 0.0 | 0.0 | 0.00 | 0.56 | 0.00 | 95 | 1012.2 |
| 20260507054603 | 54 | 0 | 0.0 | 0.0 | 0.00 | 0.56 | 0.00 | 95 | 1012.2 |
| 20260507054503 | 54 | 47 | 0.0 | 1.0 | 0.00 | 0.56 | 0.00 | 95 | 1012.2 |
| 20260507054403 | 54 | 47 | 0.0 | 1.0 | 0.00 | 0.56 | 0.00 | 95 | 1012.2 |
| 20260507054304 | 54 | 47 | 0.0 | 1.0 | 0.00 | 0.56 | 0.00 | 95 | 1012.2 |
| 20260507054203 | 54 | 47 | 0.0 | 1.0 | 0.00 | 0.56 | 0.00 | 95 | 1012.3 |
| 20260507054103 | 54 | 47 | 0.0 | 1.0 | 0.00 | 0.56 | 0.00 | 95 | 1012.4 |
| 20260507053803 | 54 | 47 | 0.0 | 1.0 | 0.00 | 0.56 | 0.00 | 95 | 1012.5 |
| 20260507053703 | 54 | 47 | 0.0 | 1.0 | 0.00 | 0.56 | 0.00 | 95 | 1012.5 |
| 20260507053603 | 54 | 47 | 0.0 | 1.0 | 0.00 | 0.56 | 0.00 | 95 | 1012.6 |
| 20260507053503 | 54 | 47 | 0.0 | 1.0 | 0.00 | 0.56 | 0.00 | 95 | 1012.6 |
| 20260507053403 | 54 | 47 | 0.0 | 1.0 | 0.00 | 0.56 | 0.00 | 95 | 1012.8 |
| 20260507053303 | 54 | 0 | 0.0 | 0.0 | 0.00 | 0.56 | 0.00 | 95 | 1012.8 |
| 20260507053103 | 54 | 0 | 0.0 | 0.0 | 0.00 | 0.56 | 0.00 | 95 | 1012.7 |
| 20260507053003 | 54 | 0 | 0.0 | 0.0 | 0.00 | 0.56 | 0.00 | 95 | 1012.7 |
| 20260507052903 | 54 | 0 | 0.0 | 0.0 | 0.00 | 0.56 | 0.00 | 95 | 1012.5 |
| 20260507052803 | 54 | 0 | 0.0 | 0.0 | 0.00 | 0.56 | 0.00 | 95 | 1012.6 |
| 20260507052704 | 54 | 0 | 0.0 | 0.0 | 0.00 | 0.56 | 0.00 | 95 | 1012.6 |
| 20260507052603 | 54 | 47 | 0.0 | 1.0 | 0.00 | 0.56 | 0.00 | 95 | 1012.8 |
| 20260507052503 | 54 | 47 | 0.0 | 1.0 | 0.00 | 0.56 | 0.00 | 95 | 1012.8 |
| 20260507052403 | 54 | 47 | 0.0 | 1.0 | 0.00 | 0.56 | 0.00 | 95 | 1013.0 |
| 20260507052306 | 54 | 47 | 0.0 | 1.0 | 0.00 | 0.56 | 0.00 | 95 | 1013.0 |
| 20260507052217 | 54 | 47 | 0.0 | 1.0 | 0.00 | 0.56 | 0.00 | 95 | 1013.0 |
| 20260507052103 | 54 | 47 | 0.0 | 1.0 | 0.00 | 0.56 | 0.00 | 95 | 1013.2 |
| 20260507051803 | 54 | 47 | 0.0 | 1.0 | 0.00 | 0.56 | 0.00 | 95 | 1013.2 |
| 20260507051703 | 54 | 47 | 0.0 | 1.0 | 0.00 | 0.56 | 0.00 | 95 | 1013.2 |
| 20260507051503 | 54 | 0 | 0.0 | 0.0 | 0.00 | 0.56 | 0.00 | 95 | 1013.0 |
| 20260507051403 | 54 | 0 | 0.0 | 0.0 | 0.00 | 0.56 | 0.00 | 95 | 1013.0 |
| 20260507051303 | 54 | 0 | 0.0 | 0.0 | 0.00 | 0.56 | 0.00 | 95 | 1013.2 |
| 20260507051203 | 54 | 0 | 0.0 | 0.0 | 0.00 | 0.56 | 0.00 | 95 | 1013.2 |
| 20260507051104 | 54 | 0 | 0.0 | 0.0 | 0.00 | 0.56 | 0.00 | 95 | 1013.3 |
| 20260507051003 | 54 | 0 | 0.0 | 0.0 | 0.00 | 0.56 | 0.00 | 95 | 1013.3 |
| 20260507050904 | 54 | 47 | 0.0 | 1.0 | 0.00 | 0.56 | 0.00 | 95 | 1013.3 |
| 20260507050803 | 54 | 47 | 0.0 | 1.0 | 0.00 | 0.56 | 0.00 | 95 | 1013.1 |
| 20260507050718 | 54 | 47 | 0.0 | 1.0 | 0.00 | 0.56 | 0.00 | 95 | 1013.1 |
| 20260507050403 | 54 | 47 | 0.0 | 1.0 | 0.00 | 0.56 | 0.00 | 95 | 1012.9 |
| 20260507050303 | 54 | 47 | 0.0 | 1.0 | 0.00 | 0.56 | 0.00 | 95 | 1012.9 |
| 20260507050217 | 54 | 47 | 0.0 | 1.0 | 0.00 | 0.56 | 0.00 | 95 | 1012.9 |
| 20260507050204 | 54 | 47 | 0.0 | 1.0 | 0.00 | 0.56 | 0.00 | 95 | 1013.0 |
| 20260507050103 | 54 | 47 | 0.0 | 1.0 | 0.00 | 0.56 | 0.00 | 95 | 1013.0 |
| 20260507045903 | 54 | 47 | 0.0 | 1.0 | 0.00 | 0.56 | 0.56 | 95 | 1013.0 |
| 20260507045803 | 54 | 47 | 0.0 | 1.0 | 0.00 | 0.56 | 0.56 | 95 | 1013.1 |
| 20260507045703 | 54 | 0 | 0.0 | 0.0 | 0.00 | 0.56 | 0.56 | 95 | 1013.1 |
| 20260507045603 | 54 | 0 | 0.0 | 0.0 | 0.00 | 0.56 | 0.56 | 95 | 1013.1 |
| 20260507045517 | 54 | 0 | 0.0 | 0.0 | 0.00 | 0.56 | 0.56 | 95 | 1013.1 |
| 20260507045504 | 54 | 0 | 0.0 | 0.0 | 0.00 | 0.56 | 0.56 | 95 | 1013.2 |
| 20260507045404 | 54 | 0 | 0.0 | 0.0 | 0.00 | 0.56 | 0.56 | 95 | 1013.2 |
| 20260507045204 | 54 | 47 | 0.0 | 1.0 | 0.00 | 0.56 | 0.56 | 95 | 1013.3 |
| 20260507045104 | 54 | 47 | 0.0 | 1.0 | 0.00 | 0.56 | 0.56 | 95 | 1013.3 |
| 20260507045004 | 54 | 47 | 0.0 | 1.0 | 0.00 | 0.56 | 0.56 | 95 | 1013.3 |
| 20260507044904 | 54 | 47 | 0.0 | 1.0 | 0.00 | 0.56 | 0.56 | 95 | 1013.3 |
| 20260507044804 | 54 | 47 | 0.0 | 1.0 | 0.00 | 0.56 | 0.56 | 95 | 1013.4 |
| 20260507044704 | 54 | 47 | 0.0 | 1.0 | 0.00 | 0.56 | 0.56 | 95 | 1013.4 |
| 20260507044603 | 54 | 47 | 0.0 | 1.0 | 0.00 | 0.56 | 0.56 | 95 | 1013.5 |
| 20260507044504 | 54 | 47 | 0.0 | 1.0 | 0.00 | 0.56 | 0.56 | 95 | 1013.4 |
| 20260507044404 | 54 | 47 | 0.0 | 1.0 | 0.00 | 0.56 | 0.56 | 95 | 1013.4 |
| 20260507044303 | 54 | 47 | 0.0 | 1.0 | 0.00 | 0.56 | 0.56 | 95 | 1013.3 |
| 20260507044204 | 54 | 47 | 0.0 | 1.0 | 0.00 | 0.56 | 0.56 | 95 | 1013.3 |
| 20260507044104 | 54 | 47 | 0.0 | 1.0 | 0.00 | 0.56 | 0.56 | 95 | 1013.3 |
| 20260507044004 | 54 | 47 | 0.0 | 1.0 | 0.00 | 0.56 | 0.56 | 95 | 1013.3 |
| 20260507043903 | 54 | 47 | 0.0 | 1.0 | 0.00 | 0.56 | 0.56 | 95 | 1013.3 |
| 20260507043803 | 54 | 0 | 0.0 | 0.0 | 0.00 | 0.56 | 0.56 | 95 | 1013.2 |
| 20260507043704 | 54 | 0 | 0.0 | 0.0 | 0.00 | 0.56 | 0.56 | 95 | 1013.1 |
| 20260507043604 | 54 | 0 | 0.0 | 0.0 | 0.00 | 0.56 | 0.56 | 95 | 1013.1 |
| 20260507043503 | 54 | 0 | 0.0 | 0.0 | 0.00 | 0.56 | 0.56 | 95 | 1012.9 |
| 20260507043404 | 54 | 0 | 0.0 | 0.0 | 0.00 | 0.56 | 0.56 | 95 | 1012.9 |
| 20260507043104 | 54 | 0 | 0.0 | 0.0 | 0.00 | 0.56 | 0.56 | 95 | 1013.0 |
| 20260507043004 | 54 | 0 | 0.0 | 0.0 | 0.00 | 0.56 | 0.56 | 95 | 1012.9 |
| 20260507042903 | 54 | 0 | 0.0 | 0.0 | 0.00 | 0.56 | 0.56 | 95 | 1012.9 |
| 20260507042803 | 54 | 0 | 0.0 | 0.0 | 0.00 | 0.56 | 0.56 | 95 | 1012.8 |
| 20260507042703 | 54 | 47 | 0.0 | 1.0 | 0.00 | 0.56 | 0.56 | 95 | 1012.7 |
| 20260507042603 | 54 | 47 | 0.0 | 1.0 | 0.00 | 0.56 | 0.56 | 95 | 1012.7 |
| 20260507042403 | 54 | 47 | 0.0 | 1.0 | 0.00 | 0.56 | 0.56 | 95 | 1012.5 |
| 20260507042306 | 54 | 47 | 0.0 | 1.0 | 0.00 | 0.56 | 0.56 | 95 | 1012.5 |
| 20260507042203 | 54 | 47 | 0.0 | 1.0 | 0.00 | 0.56 | 0.56 | 95 | 1012.5 |
| 20260507042104 | 54 | 47 | 0.0 | 1.0 | 0.00 | 0.56 | 0.56 | 95 | 1012.5 |
| 20260507041904 | 54 | 47 | 0.0 | 1.0 | 0.00 | 0.56 | 0.56 | 95 | 1012.6 |
| 20260507041803 | 54 | 47 | 0.0 | 1.0 | 0.00 | 0.56 | 0.56 | 95 | 1012.6 |
| 20260507041704 | 54 | 47 | 0.0 | 1.0 | 0.00 | 0.56 | 0.56 | 95 | 1012.9 |
| 20260507041603 | 54 | 47 | 0.0 | 1.0 | 0.00 | 0.56 | 0.56 | 95 | 1012.9 |
| 20260507041504 | 54 | 47 | 0.0 | 1.0 | 0.00 | 0.56 | 0.56 | 95 | 1012.8 |
| 20260507041404 | 54 | 47 | 0.0 | 1.0 | 0.00 | 0.56 | 0.56 | 95 | 1012.9 |
| 20260507041304 | 54 | 47 | 0.0 | 1.0 | 0.00 | 0.56 | 0.56 | 95 | 1012.9 |
| 20260507041203 | 54 | 47 | 0.0 | 1.0 | 0.00 | 0.56 | 0.56 | 95 | 1013.0 |
| 20260507041103 | 54 | 47 | 0.0 | 1.0 | 0.00 | 0.56 | 0.56 | 95 | 1013.0 |
| 20260507041003 | 54 | 47 | 0.0 | 1.0 | 0.00 | 0.56 | 0.56 | 95 | 1012.9 |
| 20260507040903 | 54 | 47 | 0.0 | 1.0 | 0.00 | 0.56 | 0.56 | 95 | 1012.8 |
| 20260507040803 | 54 | 47 | 0.0 | 1.0 | 0.00 | 0.56 | 0.56 | 95 | 1012.8 |
| 20260507040703 | 54 | 47 | 0.0 | 1.0 | 0.00 | 0.56 | 0.56 | 95 | 1012.7 |
| 20260507040603 | 54 | 47 | 0.0 | 1.0 | 0.00 | 0.56 | 0.56 | 95 | 1012.7 |
| 20260507040403 | 54 | 47 | 0.0 | 1.0 | 0.00 | 0.56 | 0.56 | 95 | 1012.7 |
| 20260507040303 | 54 | 47 | 0.0 | 1.0 | 0.00 | 0.56 | 0.56 | 95 | 1012.7 |
| 20260507040203 | 54 | 47 | 0.0 | 1.0 | 0.00 | 0.56 | 0.56 | 95 | 1012.7 |
| 20260507040104 | 54 | 47 | 0.0 | 1.0 | 0.00 | 0.56 | 0.56 | 95 | 1012.6 |
| 20260507040003 | 54 | 47 | 0.0 | 1.0 | 0.00 | 0.56 | 0.56 | 95 | 1012.6 |
| 20260507035903 | 54 | 47 | 0.0 | 1.0 | 0.00 | 0.56 | 0.56 | 95 | 1012.6 |
| 20260507035804 | 54 | 47 | 0.0 | 1.0 | 0.00 | 0.56 | 0.56 | 95 | 1012.6 |
| 20260507035703 | 54 | 47 | 0.0 | 1.0 | 0.00 | 0.56 | 0.56 | 95 | 1012.6 |
| 20260507035603 | 54 | 47 | 0.0 | 1.0 | 0.00 | 0.56 | 0.56 | 94 | 1012.7 |
| 20260507035306 | 54 | 47 | 0.0 | 1.0 | 0.00 | 0.56 | 0.56 | 94 | 1012.8 |
| 20260507035203 | 54 | 47 | 0.0 | 2.0 | 0.00 | 0.56 | 0.56 | 94 | 1012.8 |
| 20260507035103 | 54 | 47 | 0.0 | 2.0 | 0.00 | 0.56 | 0.56 | 95 | 1012.8 |
| 20260507035003 | 54 | 47 | 0.0 | 2.0 | 0.00 | 0.56 | 0.56 | 95 | 1012.8 |
| 20260507034903 | 54 | 47 | 0.0 | 2.0 | 0.00 | 0.56 | 0.56 | 94 | 1013.0 |
| 20260507034803 | 54 | 47 | 0.0 | 2.0 | 0.00 | 0.56 | 0.56 | 94 | 1013.1 |
| 20260507034704 | 54 | 47 | 0.0 | 2.0 | 0.00 | 0.56 | 0.56 | 94 | 1013.1 |
| 20260507034603 | 54 | 47 | 0.0 | 2.0 | 0.00 | 0.56 | 0.56 | 94 | 1012.8 |
| 20260507034503 | 54 | 47 | 0.0 | 2.0 | 0.00 | 0.56 | 0.56 | 94 | 1012.8 |
| 20260507034404 | 54 | 47 | 1.0 | 2.0 | 0.00 | 0.56 | 0.56 | 94 | 1012.7 |
| 20260507034303 | 54 | 47 | 0.0 | 2.0 | 0.00 | 0.56 | 0.56 | 94 | 1012.6 |
| 20260507034104 | 54 | 47 | 0.0 | 2.0 | 0.00 | 0.56 | 0.56 | 94 | 1012.6 |
| 20260507034003 | 54 | 47 | 0.0 | 2.0 | 0.00 | 0.56 | 0.56 | 94 | 1012.6 |
| 20260507033904 | 54 | 47 | 0.0 | 1.0 | 0.00 | 0.56 | 0.56 | 94 | 1012.4 |
| 20260507033803 | 54 | 47 | 0.0 | 1.0 | 0.00 | 0.56 | 0.56 | 94 | 1012.5 |
| 20260507033704 | 54 | 47 | 0.0 | 2.0 | 0.00 | 0.56 | 0.56 | 94 | 1012.5 |
| 20260507033604 | 54 | 47 | 0.0 | 2.0 | 0.00 | 0.56 | 0.56 | 94 | 1012.8 |
| 20260507033516 | 54 | 47 | 0.0 | 2.0 | 0.00 | 0.56 | 0.56 | 94 | 1012.8 |
| 20260507033403 | 54 | 47 | 0.0 | 2.0 | 0.00 | 0.56 | 0.56 | 94 | 1012.9 |
| 20260507033103 | 54 | 47 | 0.0 | 2.0 | 0.00 | 0.56 | 0.56 | 94 | 1012.9 |
| 20260507033004 | 54 | 47 | 0.0 | 2.0 | 0.00 | 0.56 | 0.56 | 94 | 1012.8 |
| 20260507032804 | 54 | 47 | 0.0 | 2.0 | 0.00 | 0.56 | 0.56 | 94 | 1012.6 |
| 20260507032704 | 54 | 47 | 0.0 | 2.0 | 0.00 | 0.56 | 0.56 | 94 | 1012.6 |
| 20260507032603 | 54 | 47 | 0.0 | 2.0 | 0.00 | 0.56 | 0.56 | 94 | 1012.5 |
| 20260507032503 | 54 | 47 | 0.0 | 2.0 | 0.00 | 0.56 | 0.56 | 94 | 1012.5 |
| 20260507032404 | 54 | 47 | 0.0 | 2.0 | 0.00 | 0.56 | 0.56 | 94 | 1012.5 |
| 20260507032306 | 54 | 47 | 0.0 | 2.0 | 0.00 | 0.56 | 0.56 | 94 | 1012.5 |
| 20260507032203 | 54 | 47 | 0.0 | 2.0 | 0.00 | 0.56 | 0.56 | 95 | 1012.5 |
| 20260507032004 | 54 | 47 | 0.0 | 2.0 | 0.00 | 0.56 | 0.56 | 94 | 1012.6 |
| 20260507031904 | 54 | 47 | 0.0 | 2.0 | 0.00 | 0.56 | 0.56 | 95 | 1012.6 |
| 20260507031704 | 54 | 47 | 0.0 | 2.0 | 0.00 | 0.56 | 0.56 | 95 | 1012.7 |
| 20260507031603 | 54 | 47 | 0.0 | 2.0 | 0.00 | 0.56 | 0.56 | 94 | 1012.7 |
| 20260507031503 | 54 | 47 | 0.0 | 2.0 | 0.00 | 0.56 | 0.56 | 95 | 1012.8 |
| 20260507031404 | 54 | 47 | 0.0 | 2.0 | 0.00 | 0.56 | 0.56 | 95 | 1012.8 |
| 20260507031304 | 54 | 47 | 0.0 | 2.0 | 0.00 | 0.56 | 0.56 | 95 | 1012.7 |
| 20260507031204 | 54 | 47 | 0.0 | 2.0 | 0.00 | 0.56 | 0.56 | 95 | 1012.7 |
| 20260507031104 | 54 | 47 | 0.0 | 1.0 | 0.00 | 0.56 | 0.56 | 95 | 1012.7 |
| 20260507031004 | 54 | 47 | 0.0 | 1.0 | 0.00 | 0.56 | 0.56 | 95 | 1012.6 |
| 20260507030903 | 54 | 47 | 0.0 | 1.0 | 0.00 | 0.56 | 0.56 | 95 | 1012.6 |
| 20260507030804 | 54 | 47 | 0.0 | 1.0 | 0.01 | 0.56 | 0.56 | 95 | 1012.5 |
| 20260507030704 | 54 | 47 | 0.0 | 1.0 | 0.01 | 0.56 | 0.56 | 95 | 1012.5 |
| 20260507030604 | 54 | 47 | 0.0 | 1.0 | 0.01 | 0.56 | 0.56 | 95 | 1012.5 |
| 20260507030504 | 54 | 47 | 0.0 | 1.0 | 0.02 | 0.56 | 0.56 | 95 | 1012.7 |
| 20260507030403 | 54 | 47 | 0.0 | 1.0 | 0.02 | 0.56 | 0.56 | 94 | 1012.7 |
| 20260507030304 | 54 | 47 | 0.0 | 1.0 | 0.02 | 0.56 | 0.56 | 94 | 1012.6 |
| 20260507030203 | 54 | 47 | 0.0 | 1.0 | 0.02 | 0.56 | 0.56 | 95 | 1012.6 |
| 20260507030004 | 54 | 47 | 0.0 | 2.0 | 0.02 | 0.56 | 0.56 | 94 | 1012.6 |
| 20260507025903 | 54 | 47 | 0.0 | 2.0 | 0.02 | 0.56 | 0.56 | 94 | 1012.7 |
| 20260507025803 | 54 | 47 | 0.0 | 2.0 | 0.02 | 0.56 | 0.56 | 95 | 1012.7 |
| 20260507025703 | 54 | 47 | 0.0 | 2.0 | 0.02 | 0.56 | 0.56 | 95 | 1012.7 |
| 20260507025604 | 54 | 47 | 1.0 | 2.0 | 0.02 | 0.56 | 0.56 | 95 | 1012.7 |
| 20260507025503 | 54 | 47 | 1.0 | 2.0 | 0.02 | 0.56 | 0.56 | 95 | 1012.7 |
| 20260507025403 | 54 | 47 | 1.0 | 2.0 | 0.02 | 0.56 | 0.56 | 95 | 1012.8 |
| 20260507025306 | 54 | 47 | 1.0 | 3.0 | 0.02 | 0.56 | 0.56 | 95 | 1012.8 |
| 20260507025203 | 54 | 47 | 1.0 | 3.0 | 0.02 | 0.56 | 0.56 | 95 | 1012.8 |
| 20260507025103 | 54 | 46 | 1.0 | 3.0 | 0.02 | 0.56 | 0.56 | 95 | 1012.8 |
| 20260507025003 | 54 | 40 | 1.0 | 3.0 | 0.02 | 0.56 | 0.56 | 94 | 1012.8 |
| 20260507024903 | 54 | 32 | 1.0 | 3.0 | 0.02 | 0.56 | 0.56 | 95 | 1012.7 |
| 20260507024803 | 55 | 22 | 1.0 | 3.0 | 0.02 | 0.56 | 0.56 | 94 | 1012.7 |
| 20260507024703 | 55 | 19 | 1.0 | 3.0 | 0.02 | 0.56 | 0.56 | 94 | 1012.6 |
| 20260507024603 | 55 | 13 | 1.0 | 3.0 | 0.03 | 0.56 | 0.56 | 94 | 1012.5 |
| 20260507024503 | 55 | 5 | 1.0 | 3.0 | 0.03 | 0.56 | 0.56 | 94 | 1012.5 |
| 20260507024403 | 55 | 359 | 1.0 | 3.0 | 0.03 | 0.56 | 0.56 | 94 | 1012.5 |
| 20260507024303 | 55 | 348 | 1.0 | 3.0 | 0.03 | 0.56 | 0.56 | 94 | 1012.5 |
| 20260507024204 | 55 | 341 | 1.0 | 3.0 | 0.03 | 0.56 | 0.56 | 94 | 1012.3 |
| 20260507024103 | 55 | 329 | 1.0 | 2.0 | 0.03 | 0.56 | 0.56 | 95 | 1012.3 |
| 20260507024003 | 55 | 329 | 0.0 | 2.0 | 0.03 | 0.56 | 0.56 | 95 | 1012.3 |
| 20260507023903 | 55 | 329 | 0.0 | 2.0 | 0.03 | 0.56 | 0.56 | 95 | 1012.4 |
| 20260507023803 | 55 | 328 | 0.0 | 2.0 | 0.04 | 0.56 | 0.56 | 95 | 1012.4 |
| 20260507023703 | 55 | 331 | 0.0 | 2.0 | 0.04 | 0.56 | 0.56 | 95 | 1012.4 |
| 20260507023604 | 55 | 336 | 0.0 | 2.0 | 0.04 | 0.56 | 0.56 | 95 | 1012.4 |
| 20260507023518 | 55 | 341 | 0.0 | 2.0 | 0.04 | 0.56 | 0.56 | 95 | 1012.4 |
| 20260507023504 | 55 | 342 | 0.0 | 2.0 | 0.04 | 0.56 | 0.56 | 95 | 1012.4 |
| 20260507023404 | 55 | 343 | 1.0 | 2.0 | 0.04 | 0.56 | 0.56 | 95 | 1012.5 |
| 20260507023203 | 55 | 344 | 1.0 | 3.0 | 0.04 | 0.56 | 0.56 | 95 | 1012.6 |
| 20260507023117 | 55 | 343 | 1.0 | 3.0 | 0.04 | 0.56 | 0.56 | 95 | 1012.6 |
| 20260507023104 | 55 | 342 | 1.0 | 3.0 | 0.04 | 0.56 | 0.56 | 95 | 1012.6 |
| 20260507023003 | 55 | 336 | 1.0 | 3.0 | 0.04 | 0.56 | 0.56 | 95 | 1012.6 |
| 20260507022803 | 55 | 324 | 1.0 | 3.0 | 0.04 | 0.56 | 0.56 | 95 | 1012.5 |
| 20260507022703 | 55 | 272 | 1.0 | 3.0 | 0.04 | 0.56 | 0.56 | 95 | 1012.5 |
| 20260507022604 | 55 | 214 | 1.0 | 3.0 | 0.04 | 0.56 | 0.56 | 95 | 1012.5 |
| 20260507022518 | 55 | 200 | 1.0 | 3.0 | 0.04 | 0.56 | 0.56 | 95 | 1012.5 |
| 20260507022503 | 55 | 196 | 1.0 | 3.0 | 0.04 | 0.56 | 0.56 | 95 | 1012.5 |
| 20260507022404 | 55 | 186 | 0.0 | 3.0 | 0.04 | 0.56 | 0.56 | 95 | 1012.5 |
| 20260507022203 | 55 | 181 | 0.0 | 2.0 | 0.04 | 0.56 | 0.56 | 95 | 1012.4 |
| 20260507022103 | 55 | 181 | 0.0 | 2.0 | 0.04 | 0.56 | 0.56 | 95 | 1012.5 |
| 20260507022004 | 55 | 181 | 0.0 | 2.0 | 0.04 | 0.56 | 0.56 | 95 | 1012.5 |
| 20260507021903 | 55 | 0 | 0.0 | 0.0 | 0.04 | 0.56 | 0.56 | 95 | 1012.4 |
| 20260507021803 | 55 | 0 | 0.0 | 0.0 | 0.04 | 0.56 | 0.56 | 95 | 1012.5 |
| 20260507021703 | 55 | 0 | 0.0 | 0.0 | 0.04 | 0.56 | 0.56 | 95 | 1012.5 |
| 20260507021603 | 55 | 0 | 0.0 | 0.0 | 0.04 | 0.56 | 0.56 | 95 | 1012.5 |
| 20260507021504 | 55 | 0 | 0.0 | 0.0 | 0.05 | 0.56 | 0.56 | 95 | 1012.5 |
| 20260507021404 | 55 | 0 | 0.0 | 0.0 | 0.05 | 0.56 | 0.56 | 95 | 1012.5 |
| 20260507021203 | 55 | 0 | 0.0 | 0.0 | 0.05 | 0.56 | 0.56 | 95 | 1012.4 |
| 20260507021104 | 55 | 0 | 0.0 | 0.0 | 0.05 | 0.56 | 0.56 | 95 | 1012.5 |
| 20260507021003 | 55 | 0 | 0.0 | 0.0 | 0.05 | 0.56 | 0.56 | 95 | 1012.6 |
| 20260507020904 | 55 | 0 | 0.0 | 0.0 | 0.05 | 0.56 | 0.56 | 95 | 1012.6 |
| 20260507020803 | 56 | 0 | 0.0 | 0.0 | 0.04 | 0.55 | 0.55 | 95 | 1012.7 |
| 20260507020704 | 55 | 0 | 0.0 | 0.0 | 0.04 | 0.55 | 0.55 | 95 | 1012.7 |
| 20260507020603 | 55 | 0 | 0.0 | 0.0 | 0.04 | 0.55 | 0.55 | 95 | 1012.7 |
| 20260507020503 | 55 | 0 | 0.0 | 0.0 | 0.03 | 0.54 | 0.54 | 95 | 1012.6 |
| 20260507020403 | 55 | 0 | 0.0 | 0.0 | 0.03 | 0.54 | 0.54 | 95 | 1012.6 |
| 20260507020303 | 55 | 0 | 0.0 | 0.0 | 0.03 | 0.54 | 0.54 | 95 | 1012.9 |
| 20260507020103 | 55 | 0 | 0.0 | 0.0 | 0.03 | 0.54 | 0.54 | 95 | 1013.3 |
| 20260507020003 | 55 | 0 | 0.0 | 0.0 | 0.03 | 0.54 | 0.54 | 95 | 1013.3 |
| 20260507015903 | 55 | 0 | 0.0 | 0.0 | 0.03 | 0.54 | 0.54 | 95 | 1013.3 |
| 20260507015803 | 55 | 0 | 0.0 | 0.0 | 0.03 | 0.54 | 0.54 | 94 | 1013.1 |
| 20260507015704 | 55 | 0 | 0.0 | 0.0 | 0.03 | 0.54 | 0.54 | 95 | 1013.1 |
| 20260507015603 | 55 | 0 | 0.0 | 0.0 | 0.03 | 0.54 | 0.54 | 95 | 1013.0 |
| 20260507015503 | 55 | 0 | 0.0 | 0.0 | 0.03 | 0.54 | 0.54 | 95 | 1013.0 |
| 20260507015404 | 55 | 0 | 0.0 | 0.0 | 0.03 | 0.54 | 0.54 | 95 | 1013.0 |
| 20260507015204 | 56 | 0 | 0.0 | 0.0 | 0.03 | 0.54 | 0.54 | 95 | 1013.0 |
| 20260507015104 | 55 | 0 | 0.0 | 0.0 | 0.03 | 0.54 | 0.54 | 95 | 1013.0 |
| 20260507015003 | 56 | 0 | 0.0 | 0.0 | 0.03 | 0.55 | 0.54 | 95 | 1012.9 |
| 20260507014904 | 56 | 0 | 0.0 | 0.0 | 0.03 | 0.55 | 0.54 | 94 | 1012.9 |
| 20260507014804 | 56 | 0 | 0.0 | 0.0 | 0.03 | 0.55 | 0.54 | 95 | 1012.9 |
| 20260507014704 | 56 | 0 | 0.0 | 0.0 | 0.03 | 0.55 | 0.54 | 94 | 1013.1 |
| 20260507014603 | 56 | 0 | 0.0 | 0.0 | 0.02 | 0.54 | 0.53 | 94 | 1013.1 |
| 20260507014504 | 56 | 0 | 0.0 | 0.0 | 0.02 | 0.54 | 0.53 | 94 | 1013.3 |
| 20260507014404 | 56 | 0 | 0.0 | 0.0 | 0.02 | 0.54 | 0.53 | 94 | 1013.3 |
| 20260507014303 | 56 | 0 | 0.0 | 0.0 | 0.02 | 0.54 | 0.53 | 94 | 1013.2 |
| 20260507014203 | 56 | 0 | 0.0 | 0.0 | 0.02 | 0.54 | 0.53 | 94 | 1013.3 |
| 20260507014003 | 56 | 0 | 0.0 | 0.0 | 0.02 | 0.54 | 0.53 | 94 | 1013.0 |
| 20260507013903 | 56 | 0 | 0.0 | 0.0 | 0.02 | 0.54 | 0.53 | 94 | 1013.3 |
| 20260507013804 | 56 | 0 | 0.0 | 0.0 | 0.01 | 0.53 | 0.53 | 94 | 1013.3 |
| 20260507013703 | 56 | 0 | 0.0 | 0.0 | 0.01 | 0.53 | 0.52 | 94 | 1013.6 |
| 20260507013603 | 56 | 0 | 0.0 | 0.0 | 0.01 | 0.53 | 0.52 | 94 | 1013.6 |
| 20260507013503 | 56 | 0 | 0.0 | 0.0 | 0.01 | 0.53 | 0.52 | 94 | 1014.0 |
| 20260507013304 | 56 | 0 | 0.0 | 0.0 | 0.01 | 0.53 | 0.52 | 94 | 1014.1 |
| 20260507013203 | 56 | 0 | 0.0 | 0.0 | 0.01 | 0.53 | 0.52 | 94 | 1013.5 |
| 20260507013103 | 56 | 0 | 0.0 | 0.0 | 0.01 | 0.53 | 0.52 | 94 | 1013.5 |
| 20260507013003 | 56 | 0 | 0.0 | 0.0 | 0.01 | 0.53 | 0.52 | 94 | 1012.7 |
| 20260507012903 | 56 | 0 | 0.0 | 0.0 | 0.01 | 0.53 | 0.52 | 94 | 1012.4 |
| 20260507012803 | 56 | 0 | 0.0 | 0.0 | 0.01 | 0.53 | 0.52 | 94 | 1012.4 |
| 20260507012704 | 56 | 0 | 0.0 | 0.0 | 0.01 | 0.53 | 0.52 | 94 | 1012.1 |
| 20260507012603 | 56 | 0 | 0.0 | 0.0 | 0.01 | 0.53 | 0.52 | 94 | 1012.1 |
| 20260507012503 | 56 | 0 | 0.0 | 0.0 | 0.01 | 0.53 | 0.52 | 94 | 1011.9 |
| 20260507012404 | 56 | 0 | 0.0 | 0.0 | 0.01 | 0.53 | 0.52 | 94 | 1011.9 |
| 20260507012306 | 56 | 0 | 0.0 | 0.0 | 0.01 | 0.53 | 0.52 | 94 | 1011.9 |
| 20260507012204 | 56 | 0 | 0.0 | 0.0 | 0.01 | 0.53 | 0.52 | 94 | 1011.8 |
| 20260507012118 | 56 | 0 | 0.0 | 0.0 | 0.01 | 0.53 | 0.52 | 94 | 1011.8 |
| 20260507012003 | 56 | 0 | 0.0 | 0.0 | 0.01 | 0.53 | 0.52 | 94 | 1011.9 |
| 20260507011703 | 56 | 0 | 0.0 | 0.0 | 0.01 | 0.53 | 0.52 | 94 | 1012.3 |
| 20260507011603 | 56 | 0 | 0.0 | 0.0 | 0.01 | 0.53 | 0.52 | 94 | 1012.5 |
| 20260507011503 | 56 | 0 | 0.0 | 0.0 | 0.00 | 0.52 | 0.51 | 94 | 1012.5 |
| 20260507011403 | 56 | 0 | 0.0 | 0.0 | 0.00 | 0.52 | 0.51 | 94 | 1012.9 |
| 20260507011303 | 56 | 0 | 0.0 | 0.0 | 0.00 | 0.52 | 0.51 | 94 | 1012.9 |
| 20260507011203 | 56 | 0 | 0.0 | 0.0 | 0.00 | 0.52 | 0.51 | 94 | 1013.0 |
| 20260507011103 | 56 | 0 | 0.0 | 0.0 | 0.00 | 0.52 | 0.51 | 94 | 1012.9 |
| 20260507011003 | 56 | 0 | 0.0 | 0.0 | 0.00 | 0.52 | 0.51 | 94 | 1012.9 |
| 20260507010803 | 56 | 0 | 0.0 | 0.0 | 0.00 | 0.52 | 0.51 | 94 | 1012.8 |
| 20260507010704 | 56 | 0 | 0.0 | 0.0 | 0.00 | 0.52 | 0.51 | 94 | 1012.7 |
| 20260507010604 | 56 | 0 | 0.0 | 0.0 | 0.00 | 0.52 | 0.51 | 94 | 1012.6 |
| 20260507010503 | 56 | 0 | 0.0 | 0.0 | 0.00 | 0.52 | 0.51 | 94 | 1012.6 |
| 20260507010403 | 56 | 0 | 0.0 | 0.0 | 0.00 | 0.52 | 0.51 | 94 | 1012.5 |
| 20260507010303 | 56 | 0 | 0.0 | 0.0 | 0.00 | 0.52 | 0.51 | 94 | 1012.5 |
| 20260507010203 | 56 | 0 | 0.0 | 0.0 | 0.00 | 0.52 | 0.51 | 94 | 1012.5 |
| 20260507010104 | 56 | 0 | 0.0 | 0.0 | 0.00 | 0.52 | 0.51 | 94 | 1012.5 |
| 20260507010004 | 56 | 0 | 0.0 | 0.0 | 0.01 | 0.52 | 0.51 | 94 | 1012.5 |
| 20260507005903 | 56 | 0 | 0.0 | 0.0 | 0.01 | 0.52 | 0.51 | 94 | 1012.4 |
| 20260507005803 | 56 | 0 | 0.0 | 0.0 | 0.01 | 0.52 | 0.51 | 94 | 1012.3 |
| 20260507005703 | 56 | 0 | 0.0 | 0.0 | 0.01 | 0.53 | 0.51 | 94 | 1012.3 |
| 20260507005603 | 56 | 0 | 0.0 | 0.0 | 0.01 | 0.53 | 0.51 | 94 | 1012.0 |
| 20260507005404 | 56 | 0 | 0.0 | 0.0 | 0.01 | 0.53 | 0.51 | 94 | 1011.8 |
| 20260507005306 | 56 | 0 | 0.0 | 0.0 | 0.01 | 0.53 | 0.51 | 94 | 1011.7 |
| 20260507005204 | 56 | 0 | 0.0 | 0.0 | 0.01 | 0.53 | 0.51 | 94 | 1011.7 |
| 20260507005103 | 56 | 0 | 0.0 | 0.0 | 0.01 | 0.53 | 0.51 | 94 | 1011.6 |
| 20260507005003 | 56 | 0 | 0.0 | 0.0 | 0.01 | 0.53 | 0.51 | 94 | 1011.4 |
| 20260507004903 | 56 | 0 | 0.0 | 0.0 | 0.01 | 0.54 | 0.51 | 94 | 1011.4 |
| 20260507004803 | 56 | 0 | 0.0 | 0.0 | 0.01 | 0.54 | 0.51 | 94 | 1011.2 |
| 20260507004703 | 56 | 0 | 0.0 | 0.0 | 0.01 | 0.54 | 0.51 | 94 | 1011.2 |
| 20260507004603 | 56 | 0 | 0.0 | 0.0 | 0.01 | 0.54 | 0.51 | 94 | 1010.9 |
| 20260507004503 | 56 | 0 | 0.0 | 0.0 | 0.01 | 0.54 | 0.51 | 94 | 1010.8 |
| 20260507004403 | 56 | 0 | 0.0 | 0.0 | 0.01 | 0.54 | 0.51 | 94 | 1010.8 |
| 20260507004303 | 56 | 0 | 0.0 | 0.0 | 0.01 | 0.54 | 0.51 | 94 | 1010.7 |
| 20260507004204 | 56 | 0 | 0.0 | 0.0 | 0.01 | 0.54 | 0.51 | 94 | 1010.7 |
| 20260507004104 | 56 | 0 | 0.0 | 0.0 | 0.01 | 0.54 | 0.51 | 94 | 1010.6 |
| 20260507004004 | 56 | 0 | 0.0 | 0.0 | 0.01 | 0.54 | 0.51 | 94 | 1010.6 |
| 20260507003903 | 56 | 0 | 0.0 | 0.0 | 0.01 | 0.54 | 0.51 | 94 | 1010.6 |
| 20260507003703 | 56 | 0 | 0.0 | 0.0 | 0.01 | 0.54 | 0.51 | 94 | 1010.4 |
| 20260507003604 | 56 | 0 | 0.0 | 0.0 | 0.01 | 0.54 | 0.51 | 94 | 1010.4 |
| 20260507003519 | 56 | 0 | 0.0 | 0.0 | 0.01 | 0.54 | 0.51 | 94 | 1010.4 |
| 20260507003404 | 56 | 0 | 0.0 | 0.0 | 0.01 | 0.54 | 0.51 | 94 | 1010.4 |
| 20260507003204 | 56 | 0 | 0.0 | 0.0 | 0.01 | 0.54 | 0.51 | 94 | 1010.6 |
| 20260507003104 | 56 | 0 | 0.0 | 0.0 | 0.01 | 0.54 | 0.51 | 94 | 1010.6 |
| 20260507003003 | 56 | 0 | 0.0 | 0.0 | 0.01 | 0.54 | 0.51 | 94 | 1010.6 |
| 20260507002903 | 56 | 0 | 0.0 | 0.0 | 0.01 | 0.54 | 0.51 | 94 | 1010.6 |
| 20260507002803 | 56 | 0 | 0.0 | 0.0 | 0.01 | 0.54 | 0.51 | 94 | 1010.7 |
| 20260507002704 | 56 | 0 | 0.0 | 0.0 | 0.01 | 0.54 | 0.51 | 94 | 1010.7 |
| 20260507002604 | 56 | 0 | 0.0 | 0.0 | 0.01 | 0.54 | 0.51 | 94 | 1010.7 |
| 20260507002404 | 56 | 0 | 0.0 | 0.0 | 0.01 | 0.54 | 0.51 | 94 | 1010.8 |
| 20260507002306 | 56 | 0 | 0.0 | 0.0 | 0.01 | 0.54 | 0.51 | 94 | 1010.9 |
| 20260507002203 | 56 | 0 | 0.0 | 0.0 | 0.01 | 0.54 | 0.51 | 94 | 1011.0 |
| 20260507002104 | 56 | 181 | 0.0 | 1.0 | 0.01 | 0.54 | 0.51 | 94 | 1011.0 |
| 20260507001903 | 56 | 181 | 0.0 | 1.0 | 0.02 | 0.54 | 0.51 | 94 | 1011.0 |
| 20260507001803 | 56 | 181 | 0.0 | 1.0 | 0.02 | 0.54 | 0.51 | 94 | 1011.0 |
| 20260507001704 | 56 | 181 | 0.0 | 1.0 | 0.02 | 0.54 | 0.51 | 94 | 1010.9 |
| 20260507001603 | 56 | 181 | 0.0 | 1.0 | 0.02 | 0.54 | 0.51 | 94 | 1010.9 |
| 20260507001504 | 56 | 181 | 0.0 | 1.0 | 0.02 | 0.54 | 0.51 | 94 | 1010.9 |
| 20260507001404 | 56 | 181 | 0.0 | 1.0 | 0.02 | 0.54 | 0.51 | 94 | 1010.9 |
| 20260507001304 | 56 | 181 | 0.0 | 1.0 | 0.02 | 0.54 | 0.51 | 94 | 1010.9 |
| 20260507001204 | 56 | 181 | 0.0 | 1.0 | 0.02 | 0.54 | 0.51 | 94 | 1011.0 |
| 20260507001103 | 56 | 181 | 0.0 | 1.0 | 0.02 | 0.54 | 0.51 | 94 | 1011.0 |
| 20260507001003 | 56 | 181 | 0.0 | 1.0 | 0.02 | 0.54 | 0.51 | 94 | 1011.1 |
| 20260507000903 | 56 | 181 | 0.0 | 1.0 | 0.02 | 0.54 | 0.51 | 94 | 1011.1 |
| 20260507000804 | 56 | 181 | 0.0 | 1.0 | 0.02 | 0.54 | 0.51 | 94 | 1011.1 |
| 20260507000703 | 56 | 181 | 0.0 | 1.0 | 0.02 | 0.54 | 0.51 | 94 | 1011.2 |
| 20260507000405 | 56 | 181 | 0.0 | 1.0 | 0.02 | 0.54 | 0.51 | 94 | 1011.3 |
| 20260507000306 | 56 | 181 | 0.0 | 1.0 | 0.02 | 0.54 | 0.51 | 94 | 1011.3 |
| 20260507000219 | 56 | 181 | 0.0 | 2.0 | 0.02 | 0.54 | 0.51 | 94 | 1011.4 |
| 20260506235803 | 56 | 181 | 0.0 | 2.0 | 0.01 | 0.53 | 0.50 | 94 | 1011.4 |
| 20260506235703 | 56 | 181 | 0.0 | 2.0 | 0.01 | 0.53 | 0.50 | 94 | 1011.4 |
| 20260506235604 | 56 | 181 | 0.0 | 2.0 | 0.01 | 0.53 | 0.50 | 94 | 1011.4 |
| 20260506235503 | 56 | 181 | 0.0 | 2.0 | 0.01 | 0.53 | 0.50 | 94 | 1011.4 |
| 20260506235306 | 56 | 181 | 0.0 | 2.0 | 0.01 | 0.53 | 0.50 | 94 | 1011.6 |
| 20260506235204 | 56 | 181 | 0.0 | 1.0 | 0.01 | 0.53 | 0.50 | 94 | 1012.2 |
| 20260506235104 | 56 | 0 | 0.0 | 0.0 | 0.01 | 0.53 | 0.50 | 94 | 1012.2 |
| 20260506235004 | 56 | 0 | 0.0 | 0.0 | 0.01 | 0.53 | 0.50 | 94 | 1012.2 |
| 20260506234919 | 56 | 0 | 0.0 | 0.0 | 0.01 | 0.53 | 0.50 | 94 | 1012.3 |
| 20260506234804 | 56 | 0 | 0.0 | 0.0 | 0.01 | 0.53 | 0.50 | 94 | 1012.3 |
| 20260506234603 | 56 | 0 | 0.0 | 0.0 | 0.01 | 0.53 | 0.50 | 94 | 1012.0 |
| 20260506234503 | 56 | 0 | 0.0 | 0.0 | 0.01 | 0.53 | 0.50 | 94 | 1012.0 |
| 20260506234404 | 56 | 0 | 0.0 | 0.0 | 0.01 | 0.53 | 0.50 | 94 | 1012.0 |
| 20260506234303 | 56 | 0 | 0.0 | 0.0 | 0.01 | 0.53 | 0.50 | 94 | 1011.8 |
| 20260506234103 | 56 | 0 | 0.0 | 0.0 | 0.01 | 0.53 | 0.50 | 94 | 1011.7 |
| 20260506234003 | 56 | 0 | 0.0 | 0.0 | 0.01 | 0.53 | 0.50 | 94 | 1011.7 |
| 20260506233903 | 56 | 0 | 0.0 | 0.0 | 0.01 | 0.53 | 0.50 | 94 | 1011.8 |
| 20260506233804 | 56 | 0 | 0.0 | 0.0 | 0.01 | 0.53 | 0.50 | 94 | 1011.8 |
| 20260506233604 | 56 | 0 | 0.0 | 0.0 | 0.01 | 0.53 | 0.50 | 94 | 1011.6 |
| 20260506233503 | 56 | 0 | 0.0 | 0.0 | 0.01 | 0.53 | 0.50 | 94 | 1011.6 |
| 20260506233404 | 56 | 0 | 0.0 | 0.0 | 0.01 | 0.53 | 0.50 | 94 | 1011.8 |
| 20260506233318 | 56 | 0 | 0.0 | 0.0 | 0.01 | 0.53 | 0.50 | 94 | 1011.8 |
| 20260506233303 | 56 | 0 | 0.0 | 0.0 | 0.01 | 0.53 | 0.50 | 94 | 1011.9 |
| 20260506233204 | 56 | 0 | 0.0 | 0.0 | 0.01 | 0.53 | 0.50 | 94 | 1011.9 |
| 20260506233003 | 56 | 0 | 0.0 | 0.0 | 0.01 | 0.53 | 0.50 | 94 | 1011.8 |
| 20260506232903 | 56 | 0 | 0.0 | 0.0 | 0.01 | 0.53 | 0.50 | 94 | 1011.9 |
| 20260506232804 | 56 | 0 | 0.0 | 0.0 | 0.01 | 0.53 | 0.50 | 94 | 1011.9 |
| 20260506232705 | 56 | 0 | 0.0 | 0.0 | 0.01 | 0.53 | 0.50 | 94 | 1011.9 |
| 20260506232603 | 56 | 0 | 0.0 | 0.0 | 0.01 | 0.53 | 0.50 | 94 | 1012.0 |
| 20260506232504 | 56 | 0 | 0.0 | 0.0 | 0.01 | 0.53 | 0.50 | 94 | 1012.0 |
| 20260506232403 | 56 | 0 | 0.0 | 0.0 | 0.01 | 0.53 | 0.50 | 94 | 1012.0 |
| 20260506232306 | 56 | 0 | 0.0 | 0.0 | 0.01 | 0.53 | 0.50 | 94 | 1012.1 |
| 20260506232204 | 56 | 0 | 0.0 | 0.0 | 0.01 | 0.53 | 0.50 | 94 | 1012.1 |
| 20260506232104 | 56 | 0 | 0.0 | 0.0 | 0.01 | 0.53 | 0.50 | 94 | 1012.0 |
| 20260506231904 | 56 | 0 | 0.0 | 0.0 | 0.00 | 0.52 | 0.49 | 94 | 1012.0 |
| 20260506231803 | 56 | 0 | 0.0 | 0.0 | 0.00 | 0.52 | 0.49 | 94 | 1011.9 |
| 20260506231704 | 56 | 0 | 0.0 | 0.0 | 0.00 | 0.52 | 0.49 | 94 | 1011.9 |
| 20260506231604 | 56 | 0 | 0.0 | 0.0 | 0.00 | 0.52 | 0.49 | 94 | 1012.0 |
| 20260506231503 | 56 | 0 | 0.0 | 0.0 | 0.00 | 0.52 | 0.49 | 94 | 1012.1 |
| 20260506231404 | 56 | 0 | 0.0 | 0.0 | 0.00 | 0.52 | 0.49 | 94 | 1012.1 |
| 20260506231304 | 56 | 0 | 0.0 | 0.0 | 0.00 | 0.52 | 0.49 | 94 | 1012.0 |
| 20260506231204 | 56 | 0 | 0.0 | 0.0 | 0.00 | 0.52 | 0.49 | 94 | 1012.0 |
| 20260506231103 | 56 | 0 | 0.0 | 0.0 | 0.00 | 0.52 | 0.49 | 94 | 1011.8 |
| 20260506231003 | 56 | 0 | 0.0 | 0.0 | 0.00 | 0.52 | 0.49 | 94 | 1011.8 |
| 20260506230904 | 56 | 0 | 0.0 | 0.0 | 0.00 | 0.52 | 0.49 | 94 | 1011.8 |
| 20260506230803 | 56 | 0 | 0.0 | 0.0 | 0.00 | 0.52 | 0.49 | 94 | 1011.9 |
| 20260506230718 | 56 | 0 | 0.0 | 0.0 | 0.00 | 0.52 | 0.49 | 94 | 1011.9 |
| 20260506230704 | 56 | 0 | 0.0 | 0.0 | 0.00 | 0.52 | 0.49 | 94 | 1012.1 |
| 20260506230603 | 56 | 0 | 0.0 | 0.0 | 0.00 | 0.52 | 0.49 | 94 | 1012.1 |
| 20260506230517 | 56 | 0 | 0.0 | 0.0 | 0.00 | 0.52 | 0.49 | 94 | 1012.1 |